GFSSGP_850_thetae_081.txt.gz
Theta_e
312 312 318 320 318 314 316 318 318 321 322 323 323 323 322 323 331 337 342 341 341 336 334 336 339 337 337 336 337 335 331 329 328 327 326 323 322 321 320 320 319 315 315 316 319 326 327 329 329
312 315 318 321 317 318 319 319 320 320 321 321 322 322 322 328 335 340 340 331 331 329 332 336 340 335 337 337 337 337 334 330 328 328 326 322 321 319 319 318 318 321 324 326 325 324 325 326 328
312 319 321 316 316 319 318 320 319 320 322 321 322 322 325 333 332 337 329 324 324 330 329 333 339 336 335 338 338 339 337 334 331 329 326 322 320 319 317 318 326 330 331 332 330 323 326 328 326
314 320 321 315 316 317 319 319 320 321 321 322 323 323 331 329 327 325 323 324 323 329 328 335 338 339 334 334 335 335 335 335 332 337 327 321 320 321 324 325 328 330 333 332 328 324 326 325 324
315 318 314 316 316 319 320 321 321 319 320 323 324 323 330 332 329 326 328 326 326 337 339 337 336 336 336 334 335 334 331 329 325 325 333 325 322 324 327 328 329 331 331 329 325 322 323 324 326
316 317 314 315 317 318 319 321 321 321 321 322 322 323 333 334 332 332 331 325 327 338 341 339 335 335 334 334 333 333 332 329 328 326 331 328 324 325 328 329 330 329 326 326 323 321 320 325 325
315 314 314 315 318 319 319 322 320 321 322 322 323 321 335 334 333 332 327 323 326 332 340 336 335 334 334 332 330 326 328 327 327 326 326 328 326 326 324 330 330 325 319 318 320 318 317 323 324
318 313 315 316 317 317 319 322 322 322 322 322 322 320 335 336 335 330 323 327 331 326 331 333 334 335 334 333 331 329 327 326 326 326 327 330 326 325 323 327 329 324 315 319 317 315 312 323 323
318 313 315 315 317 317 320 321 322 322 321 321 321 321 323 335 332 326 327 332 334 331 330 330 336 335 335 333 330 329 327 327 326 327 327 328 329 330 330 329 328 320 312 313 314 313 311 323 322
315 312 315 316 317 317 319 318 321 321 321 321 321 326 331 332 328 329 331 333 334 332 331 332 334 335 335 334 332 329 329 327 326 326 330 328 328 329 330 329 324 317 311 310 309 309 314 321 322
316 315 315 317 318 319 318 318 319 319 318 321 323 329 329 328 330 330 332 332 334 332 332 333 332 335 333 334 333 330 331 326 325 328 329 328 328 331 329 324 318 314 312 308 307 308 313 320 321
315 316 316 317 318 318 316 318 317 318 319 320 321 325 326 331 331 330 331 331 333 332 332 332 332 333 332 333 333 331 330 327 326 326 329 329 328 328 325 321 314 309 308 307 307 307 310 320 321
316 316 317 317 318 318 318 317 317 318 319 319 319 320 323 326 329 329 331 331 332 332 332 332 331 331 331 332 332 330 329 329 326 325 330 326 327 324 322 322 311 307 307 306 307 307 313 320 320
318 318 317 317 317 318 317 316 317 318 319 318 318 319 323 325 326 328 330 330 331 332 333 331 331 330 329 328 328 328 329 328 327 325 327 326 323 324 321 324 310 307 307 307 308 307 316 320 320
318 316 316 316 317 316 318 316 316 319 319 318 319 319 322 326 326 329 329 329 329 331 331 328 330 329 329 326 326 324 327 328 327 327 327 325 325 325 320 325 312 308 308 308 311 313 314 317 319
317 316 316 317 316 318 316 317 317 319 319 318 319 319 323 326 327 329 328 328 328 329 330 329 330 329 328 326 323 324 327 325 327 327 326 325 325 323 323 325 317 310 309 318 318 319 320 319 318
316 316 317 318 317 318 316 317 318 320 319 320 319 321 322 327 329 330 328 327 328 328 328 326 328 329 328 326 324 324 324 326 327 326 326 325 325 323 321 323 316 313 314 320 321 320 319 318 318
317 316 315 317 318 319 317 318 317 319 320 322 323 323 325 328 328 329 328 327 329 327 328 326 323 327 327 326 325 324 325 324 325 326 324 325 324 321 318 321 317 316 314 320 321 320 318 318 319
317 317 317 318 318 320 321 318 316 317 319 319 322 323 326 328 328 329 329 328 329 327 328 327 321 327 329 325 325 326 325 324 325 326 325 324 320 320 321 320 319 322 320 320 321 319 318 318 318
312 313 315 316 318 318 320 321 318 316 317 319 322 323 324 328 329 330 329 328 329 327 327 327 322 322 327 325 325 325 325 324 323 324 324 322 320 320 321 321 322 321 322 321 320 318 318 318 317
314 315 316 317 317 319 321 321 319 318 319 320 320 324 324 327 329 330 329 329 328 327 326 326 321 321 325 326 324 326 325 324 323 323 322 321 319 318 317 318 318 323 322 322 320 318 317 317 316
314 315 318 320 324 325 322 325 322 318 318 319 320 320 321 324 329 330 330 329 329 328 326 326 321 322 323 325 324 324 325 323 323 323 320 318 317 316 316 320 319 321 322 320 320 319 317 315 316
315 317 319 320 324 324 325 325 322 319 319 319 319 319 321 321 329 330 330 330 330 329 327 326 322 320 323 323 324 324 323 324 323 323 322 316 318 316 317 320 320 320 321 321 321 318 314 314 317
318 319 319 319 322 327 324 323 321 320 320 320 320 320 320 321 328 329 330 330 331 330 328 326 323 322 325 324 324 324 324 323 324 322 323 322 319 317 318 319 319 317 318 318 316 315 315 315 315
317 320 325 325 326 325 322 322 321 321 321 321 321 320 321 320 325 330 330 331 331 331 330 328 325 323 325 323 325 324 324 323 322 323 322 320 315 314 317 318 318 319 319 317 317 317 317 315 317
317 318 324 326 326 326 321 322 320 320 321 321 322 322 322 323 324 330 330 331 331 331 330 329 327 322 320 326 325 324 323 323 323 322 322 321 316 314 314 317 318 318 319 317 315 316 316 317 319
315 317 317 321 323 325 326 323 321 320 321 320 320 322 324 323 326 330 330 330 331 331 330 330 329 323 322 321 327 326 325 323 323 323 322 323 320 314 314 316 316 317 316 315 314 313 313 318 318
313 316 321 320 325 327 325 328 327 322 321 320 320 319 323 325 325 328 330 330 330 330 330 330 330 327 322 321 322 324 323 323 324 323 322 322 322 322 316 316 315 315 317 318 316 314 315 314 318
316 317 318 320 321 330 330 330 325 324 322 322 320 320 321 322 324 324 327 330 330 330 330 330 330 329 324 322 322 322 323 324 323 323 323 323 322 322 322 321 316 313 311 312 314 314 314 315 313
316 317 318 323 325 323 326 326 325 325 323 320 319 320 320 321 321 321 323 329 331 331 331 330 330 330 329 323 324 325 324 321 324 325 323 322 323 322 322 322 322 319 314 311 312 313 314 315 315

GFSSGP_850_thetae_084.txt.gz
Theta_e
315 312 313 319 317 311 315 315 316 318 321 322 322 322 321 324 329 325 337 338 329 325 326 325 330 335 335 335 334 331 329 328 327 326 326 328 333 333 334 332 329 325 321 317 321 322 329 330 332
313 312 318 319 316 316 316 316 318 318 321 322 322 322 322 334 335 336 339 335 327 324 324 326 329 335 337 335 335 333 330 328 328 327 327 327 327 329 327 324 323 319 315 314 319 331 329 330 328
312 315 320 314 313 315 317 318 319 319 321 321 321 322 324 332 332 329 329 327 324 322 324 328 333 337 337 336 336 335 332 329 328 328 327 327 325 322 321 320 317 314 315 319 326 327 328 328 328
312 317 319 313 316 315 317 318 318 317 320 321 322 327 329 331 329 326 325 326 324 324 327 329 335 337 335 337 338 337 336 331 329 330 329 326 328 323 320 317 317 320 326 329 330 326 327 327 326
314 317 313 313 313 314 316 317 319 317 319 322 323 322 333 332 331 327 326 325 325 325 330 331 334 337 336 334 336 336 337 335 333 331 330 327 325 328 320 320 324 330 332 331 325 328 326 324 324
315 314 311 313 314 316 315 318 318 318 320 323 322 326 334 334 330 327 328 326 326 327 332 335 336 337 336 335 334 335 334 334 332 329 329 323 327 327 327 327 330 332 331 324 326 326 324 324 326
313 310 312 313 315 316 317 319 317 319 320 321 322 325 335 334 332 330 330 327 328 328 328 333 337 336 336 335 334 334 333 331 330 328 326 326 328 330 327 329 331 331 329 323 325 324 325 326 326
316 311 315 313 315 314 317 318 321 321 321 322 322 330 334 334 332 333 328 326 328 328 325 331 335 339 337 335 333 331 327 328 327 327 327 325 324 328 329 328 331 329 328 323 322 324 326 327 326
316 311 313 312 314 315 317 316 319 321 322 321 321 321 321 329 334 334 326 328 329 331 328 328 332 335 334 334 333 332 328 327 326 326 326 326 325 328 328 329 329 325 323 323 320 325 325 324 322
313 310 314 313 314 314 316 317 317 320 320 320 320 323 324 330 334 328 327 326 330 332 329 328 329 334 334 334 332 330 328 327 327 326 325 325 326 329 326 323 321 324 319 322 319 322 324 323 321
313 316 315 315 315 316 315 316 317 318 317 320 320 325 330 333 330 328 328 327 331 333 329 330 329 336 334 333 333 331 328 328 326 325 326 327 328 328 325 326 328 319 314 320 318 317 323 321 322
315 315 315 316 316 315 314 316 315 316 318 319 318 324 329 330 328 328 327 329 331 332 331 328 331 331 333 332 332 332 330 330 326 324 327 326 329 328 329 329 326 314 314 314 314 315 322 321 321
315 316 317 317 316 316 316 315 315 316 318 318 318 322 327 328 328 329 328 330 331 332 331 329 330 331 332 332 331 331 330 328 327 324 327 328 328 326 330 328 319 313 312 310 310 320 321 321 321
316 316 316 316 316 316 314 314 314 317 318 319 318 319 323 327 327 329 329 331 331 332 331 330 330 329 331 330 330 330 330 328 327 324 325 329 328 326 328 324 314 311 310 307 309 320 321 321 321
317 316 315 315 315 314 317 314 314 318 318 319 319 318 318 322 325 326 327 329 330 331 330 330 329 328 329 329 330 331 330 329 326 327 327 328 328 326 324 320 312 309 307 307 308 317 320 321 320
317 315 315 316 315 315 315 317 315 318 318 318 319 319 318 318 324 326 328 329 329 330 329 330 328 328 326 328 326 325 325 328 328 328 328 329 326 325 322 321 310 307 307 307 307 312 320 320 320
315 316 316 316 316 316 314 316 315 318 317 316 318 319 319 318 325 327 328 329 328 328 328 329 328 327 326 326 324 324 325 326 328 327 328 327 326 323 324 323 310 307 307 307 307 317 317 318 318
317 316 314 315 314 316 315 316 315 317 317 316 317 319 318 319 325 327 329 328 327 328 328 328 326 327 326 326 324 324 324 325 325 327 327 328 326 324 324 323 312 307 308 312 314 312 314 311 315
315 315 315 314 314 317 316 316 315 317 318 316 317 318 320 322 325 328 329 328 327 328 328 327 326 326 325 325 325 323 324 325 325 327 327 328 325 324 323 325 312 308 314 319 316 318 319 318 317
313 313 311 312 314 319 319 319 317 318 317 315 318 320 321 323 327 328 328 328 328 328 328 327 326 322 324 325 325 324 324 323 325 326 326 326 325 324 324 324 313 311 319 320 318 320 320 318 318
310 312 312 313 317 318 320 319 318 319 320 319 317 320 322 322 327 328 328 329 328 328 328 327 326 321 325 324 323 324 324 325 325 324 325 325 325 324 321 320 319 315 315 320 321 320 318 318 319
314 313 315 317 321 321 322 324 321 321 321 320 318 318 320 322 326 328 328 329 329 328 328 327 325 320 320 324 324 325 325 324 323 324 324 325 324 321 320 322 318 316 320 318 321 320 317 318 318
315 318 318 319 320 321 321 326 322 320 321 321 319 317 319 321 324 328 329 329 329 328 328 327 325 320 319 327 323 324 326 325 324 323 324 324 322 320 321 323 321 320 321 318 321 319 317 317 317
317 318 319 319 320 320 319 324 323 322 321 320 318 319 319 318 322 327 329 329 329 328 328 327 325 320 320 323 323 323 324 323 323 323 323 323 321 321 321 320 321 319 319 320 321 320 318 318 317
317 317 321 324 324 319 319 324 322 320 320 320 320 319 321 320 321 328 328 328 329 328 328 328 325 321 319 321 323 322 322 323 323 322 323 322 322 320 319 317 317 318 319 321 320 320 318 319 318
317 317 320 325 323 323 320 322 320 320 321 321 320 320 320 319 324 328 329 329 329 329 329 329 326 323 319 318 322 323 322 323 322 323 323 322 321 319 316 315 318 319 320 319 320 320 319 319 317
316 317 316 321 322 322 322 324 321 325 323 321 319 319 319 319 327 328 329 329 329 329 330 330 328 325 320 318 320 323 322 322 322 322 323 323 323 321 318 316 316 319 319 319 318 318 318 316 316
314 316 321 321 322 326 323 326 330 326 325 321 319 317 320 322 327 328 329 329 329 329 330 330 329 327 324 318 318 320 323 324 323 322 322 322 322 322 322 320 318 315 317 318 319 319 318 318 317
314 317 317 318 319 324 328 330 325 325 324 322 320 318 318 322 327 329 329 329 329 330 330 330 329 329 328 324 319 318 323 325 324 323 322 322 321 321 322 320 315 314 316 317 317 319 319 316 315
314 317 318 322 324 321 324 325 323 322 322 321 320 319 319 319 321 326 330 329 329 329 330 330 329 329 329 328 324 320 318 322 324 324 323 322 322 321 321 321 320 315 314 314 316 317 317 316 315

GFSSGP_850_thetae_087.txt.gz
Theta_e
315 311 312 318 316 311 314 314 313 316 320 321 322 320 319 321 323 318 331 333 323 324 324 323 325 334 334 332 331 329 330 330 329 331 335 338 339 339 338 333 331 327 325 324 329 326 330 331 334
314 312 317 318 314 314 312 314 316 315 318 322 321 326 326 332 334 333 334 326 324 325 325 324 327 334 335 333 332 330 329 329 328 328 333 335 335 336 335 334 331 328 324 327 332 331 330 331 332
312 312 319 313 311 314 314 316 318 318 320 319 320 321 324 331 332 329 325 322 323 325 326 326 328 333 336 334 333 331 330 329 328 329 331 332 333 333 334 333 330 326 325 328 332 332 329 331 329
312 316 317 313 315 313 315 316 317 316 319 320 319 328 329 331 330 326 322 322 323 324 327 326 329 334 336 336 335 333 331 330 329 328 330 331 332 331 331 330 328 329 323 332 331 329 329 329 326
313 317 313 312 312 312 314 316 317 315 316 319 320 325 331 331 331 325 323 324 321 323 329 329 332 335 336 337 336 336 334 331 329 328 327 327 326 326 325 324 325 327 326 329 329 329 328 327 329
312 312 311 312 312 313 314 317 316 315 317 319 321 330 332 332 331 326 326 325 322 325 328 330 333 335 336 334 337 336 336 333 330 329 329 329 327 324 325 324 325 326 328 328 327 327 328 328 327
310 308 310 311 312 313 315 317 315 316 318 320 323 331 333 334 331 327 329 327 324 327 327 328 334 335 336 336 335 336 335 334 332 331 331 329 327 323 324 325 326 330 331 328 326 327 326 326 324
314 309 314 311 314 314 316 316 318 319 319 322 322 332 334 332 332 331 332 327 326 329 328 328 335 335 335 335 335 334 334 333 333 331 328 328 324 326 326 324 327 330 329 326 327 326 324 325 324
315 310 312 312 313 313 315 314 317 317 318 320 320 322 323 327 333 334 333 326 327 330 329 327 334 333 334 334 334 334 333 331 328 328 327 326 326 324 327 324 328 330 326 327 326 325 325 325 325
311 310 312 311 313 313 314 315 315 316 316 318 320 321 321 325 331 333 332 325 327 330 330 327 328 331 332 332 333 333 332 330 327 327 326 326 326 326 327 323 328 328 325 325 325 326 327 327 324
314 313 313 313 315 315 313 313 315 315 314 317 319 320 324 327 331 332 331 325 327 331 330 327 327 328 333 333 334 333 331 328 326 326 326 326 325 325 325 325 330 327 326 324 326 327 326 324 322
313 312 316 315 316 315 312 316 313 314 316 317 317 318 322 327 329 330 327 327 328 331 331 329 326 329 335 332 332 332 331 328 327 326 325 325 326 325 327 325 327 326 325 323 326 326 324 323 322
314 315 316 317 317 316 316 313 313 315 317 317 316 318 324 326 326 328 327 327 329 331 330 329 326 328 330 332 332 332 332 329 328 327 324 325 326 326 327 328 327 326 324 322 325 324 323 321 322
314 316 316 317 316 316 314 314 313 315 317 317 316 316 323 326 326 327 328 328 330 330 331 330 327 327 329 329 330 330 330 330 327 326 325 324 328 327 328 324 324 325 322 322 322 323 322 321 321
316 315 315 313 314 313 315 311 311 316 317 316 317 316 318 324 325 326 327 327 328 328 331 330 328 327 327 325 329 329 329 330 327 327 325 330 327 328 327 324 328 319 317 321 319 321 320 321 321
317 315 315 315 313 314 313 316 314 317 317 316 317 317 316 317 322 324 327 327 328 329 331 330 328 328 327 325 328 329 328 329 328 327 325 327 327 327 327 328 327 314 315 317 316 321 320 320 321
314 316 315 316 314 315 312 314 314 317 316 315 317 318 319 318 316 321 328 327 327 329 330 329 328 327 327 324 327 327 328 330 329 328 326 325 328 325 326 327 321 313 312 310 312 321 320 320 320
317 315 314 315 314 313 313 313 314 316 315 315 317 318 317 317 318 318 325 327 328 329 330 329 328 327 326 322 325 324 323 325 326 328 328 325 326 326 326 324 318 310 310 309 313 321 320 320 320
315 315 315 313 313 316 316 316 315 314 314 315 317 318 318 317 318 317 324 327 329 329 329 328 328 326 322 320 325 323 326 324 327 328 328 328 327 327 321 322 318 309 308 308 311 318 320 320 320
313 314 313 310 312 316 316 316 315 314 316 316 317 318 319 316 317 320 325 328 329 328 328 328 327 325 322 319 324 324 324 327 324 325 327 328 328 327 324 323 321 308 307 307 308 313 319 319 318
309 309 310 311 316 316 318 316 314 316 315 317 319 320 320 316 319 323 326 328 329 328 328 327 327 324 322 320 324 323 324 324 325 324 326 325 327 327 324 323 321 308 307 309 309 316 318 316 317
310 312 313 316 317 316 319 318 316 317 318 318 318 320 321 320 318 324 326 328 328 328 328 328 327 325 321 320 324 323 324 322 323 324 325 326 327 327 325 325 322 309 308 312 314 314 316 316 317
314 316 317 318 318 319 318 320 314 318 319 319 318 320 321 321 319 324 327 327 328 328 328 328 327 325 321 320 321 323 323 324 325 323 325 322 326 325 325 324 325 314 313 317 319 314 319 320 318
316 316 316 318 318 318 315 318 316 314 316 318 319 320 320 320 317 321 325 328 328 328 328 328 327 326 321 318 321 323 323 323 325 325 322 322 325 325 325 324 322 320 316 314 320 316 316 320 318
315 313 310 314 320 317 316 318 316 316 317 319 319 320 320 320 319 320 325 327 328 328 328 328 327 326 321 317 320 323 324 324 324 324 323 323 323 324 323 322 320 320 317 315 316 318 320 320 317
316 313 311 318 322 322 317 319 318 320 320 319 320 320 320 320 319 319 322 325 327 328 328 328 328 326 322 318 321 322 323 323 323 324 323 323 324 324 322 321 321 323 321 318 319 321 319 319 319
316 315 314 316 315 319 320 319 318 323 323 321 319 317 318 318 319 319 322 325 327 328 328 328 328 327 323 319 318 321 323 323 323 323 323 323 322 323 321 321 321 321 321 320 319 320 318 319 318
313 314 316 320 320 322 321 321 327 325 323 322 319 317 317 320 319 322 324 324 326 328 328 328 328 328 325 320 318 319 321 323 323 322 322 322 323 322 322 321 320 319 318 318 319 320 320 320 319
314 316 316 316 320 324 322 325 325 323 321 321 320 318 318 321 326 326 325 325 326 327 328 328 328 328 326 324 320 319 320 321 322 322 322 322 322 322 322 322 321 319 316 316 319 319 319 319 319
311 314 316 318 320 322 321 322 322 318 318 319 319 319 320 322 326 328 327 327 326 326 326 327 328 327 327 325 323 320 319 320 322 322 322 321 321 321 321 322 322 322 319 316 316 317 318 318 319

GFSSGP_850_thetae_090.txt.gz
Theta_e
312 313 312 319 315 310 314 313 312 315 318 319 320 319 319 320 319 317 328 329 321 322 322 322 324 330 333 333 332 330 335 335 336 338 340 340 339 335 331 331 330 327 326 327 328 328 329 333 334
316 312 316 318 312 312 310 313 316 315 317 319 320 322 325 324 330 328 330 325 322 322 323 323 325 331 334 333 332 330 333 333 333 337 338 336 337 336 335 332 330 328 328 328 327 328 332 333 333
314 312 318 312 310 311 310 314 314 316 317 319 318 321 322 327 331 328 329 322 322 322 322 322 324 331 334 333 332 330 331 330 330 331 334 335 335 336 335 333 331 329 335 330 330 331 330 332 332
312 314 315 313 313 313 312 316 315 314 318 318 319 322 327 328 329 328 325 323 322 322 321 322 325 332 335 334 333 331 331 330 329 331 334 333 334 335 334 333 331 331 330 330 330 330 329 331 331
312 316 312 312 312 312 311 314 316 315 316 317 319 320 328 329 328 328 322 323 323 322 322 323 325 332 335 335 334 333 331 330 328 330 333 333 333 332 333 332 331 328 327 326 329 327 329 331 329
313 312 310 311 310 311 312 315 315 315 316 317 318 325 328 328 329 325 323 324 323 323 322 326 329 334 337 337 336 335 333 332 330 330 332 331 330 330 328 327 325 325 325 325 328 328 329 329 327
307 307 310 310 310 312 312 316 315 315 315 315 321 325 328 328 329 327 325 326 324 324 323 325 330 334 337 336 337 337 335 334 331 329 327 327 327 328 327 327 325 324 322 327 330 329 329 327 328
313 307 311 309 312 312 314 316 317 316 316 319 324 326 327 324 329 327 327 328 327 327 326 325 328 333 335 336 336 337 336 334 333 330 328 328 330 330 327 325 323 322 323 327 329 329 328 328 328
313 309 310 311 311 312 314 314 315 316 316 316 319 321 325 326 329 329 329 330 327 328 327 327 329 341 335 336 336 335 335 335 333 331 330 331 329 328 326 325 324 321 326 328 328 329 328 326 325
310 309 309 310 310 312 313 313 314 315 313 315 316 319 322 328 327 328 329 330 327 327 327 327 327 330 330 332 334 334 334 334 332 331 331 328 328 325 325 326 324 323 330 328 328 328 326 324 324
312 312 310 312 314 314 313 313 315 314 313 315 316 316 317 327 330 329 329 330 328 326 328 327 325 326 329 329 332 334 333 333 331 328 327 326 326 325 325 325 323 324 329 326 327 327 325 324 323
313 311 313 313 314 314 313 315 313 314 315 316 316 316 316 320 329 327 328 329 330 327 329 328 326 325 326 330 330 332 333 332 332 329 327 325 326 326 326 327 325 325 326 326 326 325 325 326 324
313 313 314 314 314 315 316 312 314 313 317 317 317 317 316 316 324 326 328 330 330 327 329 329 328 325 326 326 331 332 331 331 329 327 326 325 326 326 326 326 325 327 325 325 325 325 326 326 322
314 314 315 315 315 315 314 315 313 315 317 317 317 317 317 316 319 326 327 329 329 327 329 330 329 327 326 328 330 330 330 329 330 327 327 325 326 326 326 325 326 326 326 325 324 325 326 324 322
311 312 313 312 314 312 314 311 310 316 317 316 317 317 316 316 320 325 323 325 326 326 328 330 329 328 327 328 329 326 329 328 331 329 329 325 325 324 326 326 326 326 325 325 325 326 325 323 321
316 313 314 314 312 314 314 316 313 316 314 315 316 317 316 316 316 319 324 327 327 327 328 330 330 328 327 327 326 325 327 327 328 330 326 326 325 327 326 326 327 327 325 325 325 325 323 322 321
313 316 314 314 312 314 311 314 314 315 316 314 316 317 317 318 318 317 319 325 327 327 328 330 330 329 328 328 326 326 328 327 328 329 327 325 328 329 327 327 327 325 324 325 325 324 322 321 321
315 315 313 314 314 313 311 312 311 315 315 315 316 316 317 317 318 320 318 317 326 328 328 330 330 329 328 328 326 325 327 329 327 327 327 325 327 327 327 325 324 325 321 324 324 322 320 321 321
314 314 314 313 312 311 312 313 313 312 312 312 314 316 317 318 319 319 319 316 322 329 328 330 330 329 327 327 325 324 324 323 329 327 328 327 325 328 323 325 326 326 317 322 323 319 320 320 321
312 314 313 311 310 315 313 314 311 311 312 314 314 315 317 318 319 320 318 317 320 328 328 330 330 329 327 325 324 322 323 323 325 324 327 328 326 325 323 325 327 323 316 322 321 318 320 319 320
308 310 309 310 313 312 315 312 312 312 312 314 315 316 317 318 319 320 319 318 322 327 327 329 329 328 327 323 322 323 323 325 325 325 326 327 327 325 323 322 325 320 316 312 312 318 319 319 320
307 307 310 315 314 313 316 315 313 312 312 312 314 317 318 319 319 320 319 319 323 325 328 329 329 328 326 323 321 320 322 323 322 324 325 326 324 327 327 326 322 322 312 309 310 317 318 319 320
311 314 315 317 316 317 318 314 310 311 311 311 311 316 318 319 320 320 320 319 321 328 328 329 328 327 326 323 320 321 322 323 322 324 323 325 324 326 327 326 323 322 317 309 308 311 316 318 319
316 314 316 316 316 315 314 314 311 309 311 316 318 316 317 318 320 320 320 320 323 327 329 329 328 327 326 323 319 320 322 323 322 322 323 324 325 325 326 326 324 323 317 309 307 309 309 317 317
312 312 310 309 316 314 313 315 313 312 314 320 318 316 317 319 319 319 319 320 322 326 329 329 328 327 327 324 319 318 322 323 323 324 322 324 323 325 326 325 325 323 321 314 309 311 312 313 317
314 313 313 315 320 319 315 319 315 318 320 320 320 318 317 318 317 318 319 320 321 325 328 328 328 327 327 325 319 317 321 322 323 323 324 323 322 323 325 325 325 325 323 318 311 316 317 316 313
315 314 312 314 314 314 313 317 316 320 319 318 318 318 318 319 319 316 318 320 321 325 326 327 328 327 327 326 320 317 321 322 323 324 324 323 322 322 324 324 323 324 322 317 316 314 314 319 317
313 313 313 316 320 320 317 318 320 320 321 319 318 318 320 321 322 318 317 320 322 325 326 328 328 327 327 326 321 317 321 322 322 323 323 323 322 322 323 323 323 321 320 321 319 318 316 316 316
314 315 314 315 315 319 319 318 320 319 320 319 318 318 319 319 325 322 322 323 324 325 325 327 327 327 327 326 322 318 320 321 322 321 322 323 322 322 322 322 322 321 320 321 322 322 320 320 320
311 314 314 313 315 319 320 317 319 319 319 318 316 317 318 316 320 324 324 324 325 325 325 327 326 326 327 327 324 321 319 319 321 320 321 321 321 322 322 322 322 322 321 321 320 318 319 320 319

GFSSGP_850_thetae_093.txt.gz
Theta_e
310 314 312 318 320 318 319 318 315 317 318 317 319 320 322 320 326 324 328 327 323 321 322 321 321 321 327 332 334 333 334 334 336 338 339 340 338 335 330 331 330 327 327 326 328 328 330 330 331
311 313 315 318 319 318 316 316 318 319 319 318 319 321 323 324 325 328 329 327 321 322 322 321 321 322 329 334 333 333 332 335 336 339 340 339 338 335 330 330 329 326 326 326 328 328 329 331 332
315 311 318 320 318 316 315 315 320 318 317 317 319 321 321 326 328 328 328 324 321 322 322 322 321 322 329 334 333 332 332 332 336 337 338 338 337 335 332 331 329 327 327 327 329 330 330 333 332
313 314 314 318 317 317 314 317 317 318 317 316 318 321 323 325 327 327 327 323 322 322 321 322 322 323 328 333 333 332 332 331 331 335 336 336 336 335 334 333 332 330 329 328 328 330 332 333 332
312 314 316 317 316 316 315 315 316 317 317 317 318 320 327 326 327 326 328 323 323 320 320 323 324 327 330 334 333 332 331 330 330 333 332 334 335 335 335 334 333 332 332 329 328 329 330 332 331
312 313 316 314 314 313 314 315 315 316 316 317 317 319 325 325 326 327 324 323 323 321 321 323 325 329 334 336 336 335 332 331 330 331 331 333 334 335 333 333 332 331 328 326 328 329 329 330 330
313 315 314 313 313 313 314 314 315 317 316 317 317 321 324 326 327 327 322 324 323 322 323 325 326 330 336 337 336 335 334 332 330 330 332 332 332 332 329 328 328 326 326 323 322 329 330 330 329
311 314 313 313 313 313 314 315 316 316 317 316 322 325 326 326 328 327 323 325 326 324 323 325 326 330 336 337 336 336 335 334 332 330 331 330 330 328 328 327 327 326 326 325 323 326 328 329 328
312 313 314 313 312 313 314 316 315 315 315 316 317 319 325 323 330 330 326 326 328 326 324 325 327 331 337 335 336 336 335 334 333 330 329 331 328 327 327 329 328 326 326 324 325 324 327 328 328
313 314 313 312 313 313 314 314 314 315 315 316 315 317 318 317 321 332 327 326 327 328 324 325 329 329 336 332 335 336 334 334 333 331 329 328 327 328 330 329 326 323 325 325 325 325 327 328 329
313 314 312 312 312 312 314 314 313 315 316 315 316 316 316 316 321 329 329 327 326 328 325 326 327 328 331 331 332 335 337 334 331 331 330 329 329 331 328 326 323 324 325 325 324 327 327 329 327
314 312 313 313 312 313 314 314 314 315 315 315 315 316 317 316 316 321 326 328 328 329 327 326 328 326 327 330 330 332 333 332 331 331 331 331 330 328 327 325 325 325 324 326 326 327 327 327 324
315 314 313 313 313 313 313 314 314 315 314 314 316 316 317 316 316 316 321 327 329 331 328 327 328 327 325 329 330 328 330 333 334 332 331 330 327 326 326 325 325 326 324 328 326 327 326 324 323
313 314 314 314 315 314 315 316 314 314 315 316 316 317 317 317 317 316 318 323 327 330 331 327 328 328 326 325 329 331 330 331 330 331 330 328 326 325 325 326 325 327 325 326 324 327 325 325 325
311 312 312 314 315 315 315 316 315 315 316 315 316 317 316 317 316 317 317 320 325 329 332 328 328 329 327 326 328 330 328 328 327 328 329 326 326 325 326 327 326 326 325 323 325 326 325 326 324
316 313 315 314 313 314 315 318 317 315 313 314 314 315 316 317 318 319 317 317 323 328 331 329 328 329 328 327 328 330 328 326 328 327 329 327 326 325 326 328 327 325 326 324 324 325 326 326 322
314 316 317 317 314 315 315 317 316 313 314 315 316 316 316 317 318 319 319 319 317 323 329 330 329 330 329 328 329 328 327 325 325 326 329 329 327 325 325 325 327 326 326 322 322 326 326 325 321
314 317 316 317 316 314 316 315 314 314 315 316 316 315 316 316 317 318 318 318 319 318 327 330 328 330 330 328 328 327 326 326 325 326 328 328 326 326 326 326 326 326 325 322 325 326 325 324 322
314 315 316 315 314 315 317 317 316 315 315 314 315 315 315 316 317 317 318 318 320 318 319 328 328 330 330 329 328 328 326 327 325 325 326 325 325 327 328 326 327 327 326 325 326 326 324 321 321
313 313 314 314 314 314 315 315 314 314 314 315 315 315 315 315 316 317 317 318 320 318 317 326 328 329 330 329 328 326 323 323 327 327 327 327 326 326 326 326 326 327 326 325 325 325 322 321 321
311 312 312 313 313 313 316 314 315 314 314 314 313 314 315 315 316 317 318 318 320 318 317 321 327 329 330 329 328 326 321 324 325 324 324 327 326 324 327 322 325 325 325 324 325 325 323 320 320
309 309 310 311 313 313 317 315 314 314 314 313 313 316 316 315 315 316 318 319 320 319 318 324 328 329 330 329 327 324 318 322 323 324 325 327 325 324 325 323 325 325 326 320 323 324 322 320 320
309 309 310 315 316 317 316 317 313 312 312 318 321 320 318 317 316 316 317 318 320 319 320 325 329 330 330 328 327 323 319 322 322 323 326 325 326 327 325 324 322 325 324 318 322 324 322 319 319
315 316 317 317 317 317 314 314 313 314 313 318 321 320 319 319 318 316 317 318 319 321 323 326 327 329 330 328 326 322 318 321 323 322 323 324 326 324 326 326 321 323 324 316 314 313 313 314 319
313 314 317 315 317 313 314 316 315 317 321 320 320 319 319 320 321 319 315 318 319 323 323 324 326 328 329 327 326 322 318 322 323 322 324 322 323 325 324 326 325 324 323 323 318 315 309 312 319
314 315 315 314 317 318 315 313 317 321 319 319 319 318 318 320 321 322 319 317 318 323 325 325 326 328 328 327 325 322 319 322 322 322 323 323 323 324 323 326 326 326 324 323 321 316 309 314 316
316 316 313 315 315 316 314 314 316 319 320 320 318 317 317 319 319 322 322 316 318 322 324 325 327 329 328 327 325 322 319 321 322 322 322 322 322 322 323 324 325 324 324 323 320 314 310 308 309
314 314 316 316 319 319 316 318 320 322 321 320 319 317 317 317 318 323 323 318 320 323 326 326 328 329 328 327 326 322 318 319 323 322 322 323 325 324 322 323 325 324 324 324 320 318 310 310 311
315 315 315 315 315 317 318 318 322 321 321 321 320 317 315 314 314 322 323 321 323 324 325 326 329 327 327 327 326 322 317 318 323 323 323 323 323 322 322 322 323 323 323 323 322 320 311 312 315
313 315 315 315 316 315 317 317 319 319 319 319 318 317 313 311 311 315 324 324 324 324 324 323 325 325 327 326 325 321 317 318 323 321 321 322 322 322 322 322 323 322 323 322 321 320 315 318 316

GFSSGP_850_thetae_096.txt.gz
Theta_e
312 314 313 319 322 321 321 320 322 323 323 322 322 323 325 324 328 327 330 333 325 322 322 322 322 321 322 326 333 337 337 339 339 339 339 339 336 334 333 332 332 331 330 326 328 329 330 331 331
314 314 316 320 319 320 321 321 321 323 322 321 322 322 324 325 326 332 336 326 325 322 323 322 321 320 322 327 333 335 335 334 334 335 338 338 337 335 333 333 331 329 327 328 332 333 331 330 331
314 314 318 319 320 319 320 320 321 322 321 321 323 323 325 326 331 332 336 327 322 323 322 321 320 321 323 328 333 334 333 333 332 335 338 338 337 335 333 333 331 331 327 333 332 333 331 330 330
315 315 316 319 318 320 319 320 323 322 321 320 322 324 324 328 333 334 331 326 322 323 322 320 320 321 324 330 333 333 332 331 335 336 338 338 337 336 334 333 332 333 331 331 331 330 329 333 331
315 316 318 318 318 319 320 320 322 323 320 320 321 324 325 330 327 332 329 326 322 323 321 320 320 321 324 330 333 333 332 331 332 336 337 337 337 336 334 332 332 332 332 333 331 330 331 333 331
316 316 317 318 318 318 319 318 319 320 319 319 320 321 322 330 327 326 328 327 322 323 320 320 321 322 325 329 333 333 332 332 331 333 336 337 336 335 334 333 332 332 332 334 330 330 332 333 332
316 317 316 317 318 318 317 317 318 318 318 320 320 323 324 331 335 333 328 326 323 323 321 321 322 323 326 333 337 335 333 331 331 330 332 335 335 335 335 334 333 331 332 329 329 327 329 331 331
315 317 317 317 317 317 317 316 317 317 319 319 320 324 325 331 339 336 330 324 324 323 322 322 324 324 329 336 337 336 335 332 331 330 331 331 333 335 335 332 328 328 328 326 327 328 326 328 330
315 317 317 317 316 316 316 317 317 317 318 318 319 321 328 317 332 338 338 330 325 325 324 323 325 324 334 336 336 338 336 335 332 331 330 331 331 331 333 329 328 328 327 325 327 327 327 327 330
317 319 319 319 318 317 316 317 317 318 318 319 318 322 322 324 335 338 337 333 325 327 327 324 325 325 327 330 333 335 336 335 334 332 331 331 331 332 332 328 327 328 328 326 328 328 325 326 329
316 318 320 319 316 316 316 316 315 316 316 318 319 318 318 325 328 332 335 337 335 331 330 327 325 326 329 328 333 335 335 334 334 334 332 332 331 331 328 328 329 329 328 327 327 326 325 327 328
316 317 317 318 316 316 317 316 316 316 316 315 317 316 317 318 323 326 328 332 337 337 328 329 326 326 327 330 332 332 333 333 334 334 332 331 330 329 328 329 330 329 325 325 328 324 325 327 328
318 318 316 316 316 316 315 316 316 316 315 315 315 315 316 317 319 322 325 329 333 337 330 330 326 327 328 329 329 329 330 334 333 334 332 331 329 328 329 330 330 326 325 326 325 325 328 328 327
317 317 317 316 316 316 316 317 316 317 316 316 317 317 317 317 318 320 323 327 331 335 338 330 327 328 328 325 325 327 328 330 331 332 332 331 330 331 331 329 329 326 325 325 325 325 328 327 327
314 316 316 317 317 318 317 318 318 317 317 317 317 317 317 317 318 319 321 326 329 333 336 336 330 327 328 327 325 327 329 329 329 331 331 331 331 331 330 327 327 327 326 324 326 325 327 327 327
315 316 318 318 318 317 317 321 321 319 318 318 318 318 318 317 318 319 322 325 327 330 334 336 332 328 328 328 326 326 329 331 329 328 327 327 329 328 327 327 328 327 325 325 324 324 327 327 327
317 319 320 320 319 318 318 320 321 319 319 319 319 319 319 319 319 319 320 323 326 329 333 336 332 330 328 329 328 326 328 331 328 327 327 327 328 327 327 328 327 326 326 325 321 323 326 326 325
318 318 318 319 320 319 320 320 320 318 318 319 319 319 319 319 319 319 319 319 322 326 331 334 334 331 329 330 329 327 329 330 328 325 325 326 328 328 326 326 328 326 326 325 323 323 325 325 325
316 316 317 318 318 318 319 320 320 320 319 319 319 319 319 319 319 319 319 319 319 321 326 332 335 331 330 330 330 328 328 332 328 325 325 325 328 329 327 326 326 327 326 325 324 324 325 324 324
313 315 316 317 318 318 318 319 319 319 319 318 319 319 319 320 320 319 319 320 320 321 320 330 334 328 330 329 330 328 328 330 327 325 325 326 326 326 326 325 326 326 325 325 323 323 324 324 323
313 314 314 315 316 316 317 318 319 319 319 318 318 317 317 317 317 317 318 319 321 324 321 329 333 325 330 330 330 329 328 328 326 324 326 326 327 327 326 327 326 326 326 326 323 323 324 324 323
313 313 313 313 314 317 317 319 318 317 317 317 316 320 322 322 322 320 319 318 320 326 328 330 333 325 329 330 330 329 327 325 323 323 326 326 326 325 326 325 326 326 326 324 323 324 325 323 323
311 311 311 312 312 315 316 319 316 315 315 317 319 322 323 323 323 323 321 319 319 324 329 330 331 326 328 329 330 329 329 326 323 325 325 325 327 327 326 320 325 325 326 325 325 325 325 324 323
311 310 312 315 316 320 317 317 316 316 317 321 322 322 322 322 323 323 324 321 320 324 330 331 327 326 328 330 330 329 328 325 325 323 325 326 326 326 325 324 322 325 324 324 325 324 324 323 323
313 315 319 319 320 318 315 316 315 319 322 322 322 321 321 320 322 323 324 325 321 327 331 330 327 327 329 330 330 329 326 324 325 323 324 325 325 325 325 325 325 325 325 326 324 319 323 324 318
314 315 317 314 315 316 317 318 318 321 319 321 320 320 320 319 319 321 322 325 324 326 330 331 333 328 329 330 330 328 325 319 325 325 323 323 324 326 324 325 326 324 321 322 323 320 319 318 317
316 317 315 315 317 317 316 316 317 320 320 320 320 320 320 319 318 318 319 326 327 325 330 329 332 329 329 328 329 327 325 319 325 325 325 322 323 323 325 324 325 325 323 323 323 321 317 315 314
316 315 317 317 320 319 318 318 320 320 321 320 321 320 319 316 314 315 320 326 324 326 330 327 329 329 329 327 327 327 324 320 327 324 323 323 323 323 325 323 324 325 324 323 324 323 322 318 315
316 317 316 317 318 318 318 320 322 322 320 319 319 318 316 313 311 311 315 324 325 327 329 326 326 325 328 327 326 326 323 322 326 323 322 322 323 323 323 322 324 325 324 324 324 324 323 320 316
314 314 315 316 318 318 318 319 321 317 317 318 318 315 313 310 309 308 308 315 325 326 325 324 325 325 327 328 325 325 322 322 324 323 323 323 323 324 324 322 323 323 323 324 323 322 323 319 316

GFSSGP_850_thetae_099.txt.gz
Theta_e
312 316 317 319 322 323 322 324 324 324 325 324 324 325 327 327 330 333 333 336 334 339 323 323 322 320 321 322 326 332 336 339 340 340 339 338 338 334 333 333 333 334 336 335 334 332 331 330 330
313 319 316 319 323 322 324 324 323 323 325 325 325 324 325 327 326 333 335 336 336 338 325 323 322 320 320 322 328 333 336 338 340 340 339 339 338 335 335 334 335 337 337 334 332 333 331 331 330
317 318 317 321 322 322 322 324 323 323 324 324 325 324 325 326 329 330 334 336 336 338 338 325 320 319 319 322 328 334 336 336 337 337 338 338 338 336 335 334 337 338 334 333 333 333 332 331 330
318 317 317 321 322 322 323 323 322 323 323 323 324 326 325 328 331 330 336 336 336 339 339 322 320 319 320 323 328 333 334 334 333 333 335 337 337 337 336 335 336 337 334 333 332 333 332 331 331
317 317 319 320 320 321 323 322 322 324 323 323 323 325 326 330 331 332 337 336 336 338 338 321 320 320 320 323 329 333 333 333 332 335 336 337 338 338 337 334 333 334 335 334 332 333 330 331 330
318 317 320 320 321 322 322 322 321 323 323 322 322 323 325 327 331 335 338 339 339 336 325 322 320 321 321 323 328 332 333 332 332 333 336 338 338 337 336 333 333 333 333 329 328 334 332 328 330
319 320 320 321 321 322 322 321 321 321 322 322 321 323 324 328 332 336 339 341 342 326 323 321 320 322 322 322 326 332 333 333 332 332 335 337 337 336 335 333 333 332 332 332 330 326 327 329 329
318 321 321 322 321 321 322 320 319 319 320 320 321 323 324 331 334 339 341 343 344 328 324 322 321 322 322 321 324 332 333 333 332 332 332 334 336 336 335 333 333 333 332 332 330 326 328 326 327
318 321 322 322 322 322 320 320 319 318 319 320 320 322 329 328 337 340 341 344 344 344 338 324 322 323 332 333 331 333 335 334 332 331 331 332 333 336 335 334 333 328 329 329 326 326 328 326 326
321 322 322 323 323 322 320 319 319 319 319 320 320 321 326 327 333 339 340 341 342 343 343 328 323 325 340 337 338 337 336 336 334 332 331 331 332 333 335 334 332 329 328 328 326 327 328 327 325
320 322 323 323 322 322 320 320 319 320 320 319 319 320 324 325 327 334 336 337 339 341 342 338 326 326 337 340 339 339 336 336 336 335 334 332 334 333 333 334 332 328 328 329 328 327 328 327 326
320 320 320 321 321 321 320 320 320 319 319 318 318 320 320 319 322 325 330 332 335 338 341 340 328 326 336 340 337 338 339 336 335 334 334 334 333 333 333 334 333 331 329 329 329 328 328 325 328
320 320 320 320 320 320 320 320 320 320 318 318 317 317 319 318 319 321 324 327 329 334 340 342 331 327 326 333 337 333 334 332 334 333 334 334 333 332 332 332 333 331 330 330 329 327 327 325 327
319 320 321 320 320 319 320 320 319 319 318 318 318 317 317 317 318 319 321 324 326 330 337 342 332 329 326 338 339 328 327 334 331 332 333 333 333 332 331 331 331 330 330 329 327 327 325 325 327
317 320 321 321 321 321 319 321 321 319 320 319 320 319 318 318 319 319 321 322 324 327 332 340 333 329 327 333 337 331 327 332 335 332 332 333 333 332 331 330 330 331 329 328 326 326 324 326 327
317 318 320 321 320 320 320 322 322 321 321 321 320 321 319 318 318 319 320 321 323 326 329 338 340 329 328 327 333 334 333 327 333 334 332 331 331 331 331 330 331 330 329 328 326 325 326 327 326
317 319 319 319 321 321 321 321 322 321 322 321 322 321 321 320 319 319 319 320 322 325 328 335 341 335 330 328 329 329 332 325 326 332 330 328 329 329 329 329 330 329 328 327 325 325 325 327 326
319 319 320 321 322 322 322 321 321 322 321 322 321 322 322 321 321 320 319 320 322 324 327 332 339 340 333 329 329 329 328 326 326 330 330 328 327 327 327 329 328 328 328 326 325 324 325 326 325
317 318 320 320 321 322 322 322 322 322 321 321 321 322 322 322 322 321 321 320 321 322 326 331 337 339 336 331 330 329 329 328 327 326 329 329 328 326 326 328 327 330 327 326 325 325 326 325 325
316 317 320 320 319 320 321 321 321 322 323 322 322 321 321 322 322 322 322 322 321 321 322 327 334 338 336 332 331 330 330 329 329 326 329 329 327 326 326 328 327 327 327 326 325 322 321 323 324
316 317 317 317 316 318 320 320 319 320 320 320 320 320 321 321 321 321 321 321 322 322 324 324 329 335 337 332 332 334 333 332 330 327 329 327 326 327 327 326 327 325 326 326 326 321 323 325 324
314 315 315 314 316 319 318 319 320 319 320 321 320 320 320 323 323 323 323 322 322 321 323 326 328 333 336 333 335 335 332 331 329 329 328 326 326 326 327 326 326 326 325 326 326 325 324 324 324
313 314 314 315 315 316 317 319 319 320 319 319 319 321 323 324 324 324 324 325 323 322 322 327 329 332 335 334 335 335 334 332 330 328 327 325 328 326 326 322 326 326 325 326 325 325 324 323 324
312 312 312 313 313 315 315 317 319 317 317 319 322 323 323 323 323 323 324 325 325 323 322 327 331 334 334 332 335 334 334 332 329 327 328 328 326 327 326 323 324 325 325 326 325 322 322 323 324
311 312 314 315 316 317 318 318 318 320 322 322 322 322 322 322 322 321 322 324 326 327 322 327 332 335 331 333 334 335 334 332 328 327 328 326 326 327 328 323 324 324 324 325 324 323 323 324 324
312 312 319 319 321 319 317 315 317 321 321 321 320 321 321 321 320 319 320 321 324 328 325 328 333 333 331 332 333 334 334 330 328 326 327 326 325 326 326 325 322 325 322 323 324 324 324 324 324
313 315 316 319 319 319 318 320 321 321 321 321 320 320 320 319 318 317 317 317 323 326 327 330 334 330 328 329 333 333 332 329 327 326 326 324 325 325 326 326 325 322 323 324 324 325 323 320 319
313 314 317 318 318 316 317 318 323 322 321 320 320 320 318 317 315 313 312 312 319 325 327 331 333 330 327 327 330 331 331 327 326 326 326 325 325 324 326 324 325 325 324 322 322 324 323 320 320
315 317 316 316 317 321 321 324 321 318 318 319 320 318 316 315 311 309 306 312 322 327 328 333 331 329 328 327 327 331 330 327 325 325 326 326 324 324 323 325 325 325 324 324 322 322 324 322 319
314 316 315 318 318 317 320 324 318 315 317 320 319 316 314 311 309 305 304 308 317 324 328 329 328 327 326 326 326 328 328 326 324 325 325 324 324 323 324 325 323 324 325 325 324 322 323 323 320

GFSSGP_850_thetae_102.txt.gz
Theta_e
311 313 315 319 321 322 322 322 325 325 325 325 325 325 327 327 333 336 333 334 333 326 324 322 322 320 319 320 322 327 333 336 339 340 340 338 338 334 333 332 333 333 335 336 337 334 333 332 331
310 317 321 318 320 321 322 324 324 325 325 326 325 325 325 326 331 334 334 334 335 324 324 323 322 320 319 320 322 327 333 336 339 340 339 338 339 337 334 333 333 334 337 336 335 334 332 331 330
310 318 320 319 319 322 323 324 324 324 325 325 324 324 325 326 327 333 334 335 338 326 322 322 322 320 319 320 323 327 333 336 339 340 339 338 338 337 335 334 334 336 336 335 333 333 331 331 330
312 321 319 318 319 321 321 323 324 323 324 323 323 325 325 330 330 335 334 335 337 339 323 323 321 320 319 320 323 328 334 336 337 338 338 338 337 337 336 335 335 335 336 335 334 333 330 331 330
317 319 319 318 318 320 323 324 323 323 323 323 322 323 326 327 330 336 333 335 338 338 325 323 321 321 320 321 322 328 333 334 334 334 334 335 337 337 336 335 335 332 330 332 333 334 331 330 330
319 318 319 320 319 320 322 321 321 323 324 323 323 323 325 329 330 336 335 336 339 335 325 324 322 321 321 321 321 327 332 333 333 333 334 335 337 337 337 336 334 334 334 330 327 328 328 327 329
321 321 320 320 321 321 323 322 323 322 323 323 323 322 323 331 331 335 338 337 339 339 325 324 322 321 322 321 320 326 332 333 332 332 334 337 337 337 336 335 334 333 334 332 327 327 327 326 329
321 322 322 323 322 322 323 323 322 322 322 321 322 323 324 330 332 336 340 341 341 339 328 324 323 321 322 321 320 324 331 332 332 331 332 336 337 337 336 335 333 333 332 332 331 328 326 326 326
320 322 323 322 323 323 323 323 322 320 320 320 320 321 327 331 337 339 340 343 344 339 328 324 324 322 322 322 322 325 330 332 332 332 332 333 335 336 336 335 333 332 332 331 331 328 326 326 326
319 323 323 322 323 323 323 323 322 320 320 319 320 320 327 328 336 339 341 344 345 346 339 328 324 323 323 325 323 329 329 331 333 332 331 332 333 334 335 334 333 333 329 330 329 326 326 327 327
320 321 323 323 322 322 323 324 322 320 321 320 321 320 324 326 329 337 339 342 344 345 344 332 328 324 327 329 327 331 334 330 333 333 332 331 332 333 334 334 333 332 329 328 328 327 327 328 326
319 321 321 322 322 323 323 323 323 320 321 320 320 320 322 325 325 329 335 338 341 342 344 336 329 326 328 340 329 332 335 336 338 336 335 334 332 333 333 334 334 333 330 328 328 328 328 327 327
318 321 321 321 321 321 322 323 323 322 321 320 319 319 320 323 321 322 326 330 335 337 339 335 332 327 329 338 333 334 335 337 341 337 335 334 334 334 333 333 332 332 331 330 329 329 329 327 328
316 318 320 321 321 321 322 322 322 321 321 320 320 319 319 319 320 319 321 324 327 333 336 334 332 332 329 334 333 330 326 330 333 332 331 333 333 333 333 332 332 332 332 330 330 330 329 327 326
316 316 318 321 321 321 321 322 321 321 321 320 320 320 319 319 318 318 319 320 323 326 336 335 333 332 328 333 332 331 328 325 329 328 332 331 333 333 332 332 331 331 330 330 330 329 327 327 325
316 317 318 319 320 322 322 323 322 321 321 321 321 320 320 320 319 318 319 319 322 323 328 336 334 331 329 330 338 331 329 328 332 328 330 331 332 332 331 331 330 330 330 330 330 327 327 327 325
314 318 318 318 319 321 322 323 322 322 322 322 322 322 321 322 320 319 319 319 321 322 324 333 334 329 330 330 338 337 329 329 329 332 331 332 331 329 331 331 331 330 329 331 329 327 326 324 326
314 316 317 319 319 320 322 322 322 321 322 323 323 323 322 322 322 321 319 319 320 321 322 334 334 331 334 330 335 337 336 332 330 334 332 330 329 328 328 329 330 330 328 330 329 327 325 325 326
314 315 318 318 320 321 322 322 322 322 322 322 323 323 322 323 322 321 320 319 320 321 323 331 336 334 331 335 329 336 332 331 328 326 331 333 328 326 325 327 326 328 328 330 329 326 325 326 326
312 316 318 319 319 321 322 323 324 323 323 322 322 322 322 323 323 323 322 321 321 320 322 325 336 337 334 336 332 335 335 330 329 328 329 328 328 328 327 326 327 327 328 328 328 326 325 326 326
311 314 318 319 320 317 320 319 321 322 322 322 322 322 322 322 322 322 322 323 323 323 323 322 326 338 336 335 337 335 336 333 334 331 330 330 329 328 327 327 327 326 327 327 328 326 325 325 325
312 314 317 318 319 320 317 322 320 321 321 320 321 322 321 321 323 323 323 324 324 323 322 324 322 328 337 335 337 335 333 332 331 331 331 329 328 328 327 328 327 327 326 326 327 326 325 325 325
312 315 316 316 317 317 317 321 320 320 320 319 320 322 323 324 325 324 324 325 325 325 325 323 324 324 333 335 336 335 334 335 332 331 330 329 327 326 326 326 326 326 326 326 325 326 324 325 324
313 315 315 315 315 321 319 320 319 320 320 320 321 322 323 323 323 323 323 323 324 325 326 326 324 325 329 333 337 335 334 334 333 331 330 329 326 325 327 326 326 324 326 326 326 326 324 323 322
314 315 315 317 320 318 315 316 318 319 319 322 323 322 322 322 321 320 320 320 320 323 325 328 326 328 330 333 336 335 336 334 333 331 328 326 322 325 326 326 325 324 325 325 325 326 325 322 321
312 314 317 314 315 314 313 321 320 321 322 321 322 321 320 320 318 317 316 316 316 318 323 328 328 330 332 334 335 335 337 334 333 330 327 326 324 326 326 327 324 324 324 325 324 325 325 324 324
312 313 315 323 321 324 320 321 319 322 322 321 320 320 319 318 316 314 312 310 311 314 321 326 328 331 334 335 333 335 335 333 332 329 328 325 325 325 325 326 323 323 324 324 325 325 325 322 322
313 313 316 319 326 327 320 322 324 323 321 320 319 317 315 314 312 310 307 306 312 317 323 327 328 333 334 333 332 332 335 333 331 328 326 325 325 324 326 325 325 324 323 324 324 324 322 321 322
313 315 317 318 319 323 323 327 318 319 320 320 317 313 311 310 309 306 303 306 311 316 323 332 332 333 333 331 327 331 333 332 329 328 326 325 325 325 325 325 325 324 322 323 322 321 323 323 323
315 316 316 321 317 321 322 323 319 320 319 316 312 310 308 307 305 303 301 303 309 314 322 326 330 330 331 329 327 330 332 330 328 327 326 325 325 325 324 324 324 324 325 325 324 322 322 322 324

GFSSGP_850_thetae_105.txt.gz
Theta_e
310 312 314 320 314 313 315 315 317 319 320 324 325 324 323 329 334 337 338 336 329 324 323 322 321 320 319 319 320 323 328 334 337 339 339 339 337 334 331 331 332 333 333 335 336 336 335 334 332
309 312 319 321 312 313 314 318 319 319 323 325 324 324 324 331 334 336 334 334 324 324 323 322 321 320 320 320 320 322 327 333 337 339 339 339 337 336 333 332 333 334 335 335 335 335 333 331 331
309 316 319 314 311 313 314 318 319 321 325 324 324 323 324 330 334 334 331 329 324 324 322 322 322 320 319 320 320 321 327 334 338 339 339 338 338 337 335 334 334 335 335 334 334 333 331 330 331
310 317 320 313 312 312 315 317 318 318 323 323 323 322 327 330 335 334 334 323 323 323 322 322 322 320 320 320 320 321 327 333 337 339 338 338 337 337 336 335 335 334 335 333 333 333 330 330 330
314 318 314 312 312 314 315 316 318 317 319 322 322 321 329 330 332 333 332 326 321 322 323 323 322 321 321 320 319 322 327 333 335 337 337 337 336 336 336 336 335 335 331 329 331 331 329 329 330
316 318 312 315 315 315 315 318 318 318 320 322 321 322 326 332 333 333 333 330 323 323 325 323 322 321 321 320 318 321 327 332 333 333 333 333 336 336 336 335 335 335 332 328 331 328 327 326 329
316 314 314 313 314 316 317 319 318 320 320 321 322 321 325 335 335 334 333 328 324 326 326 323 322 321 321 321 318 320 325 330 332 331 331 334 335 336 336 336 335 334 333 331 330 327 327 326 326
319 317 319 319 317 317 318 320 320 321 320 322 322 320 322 333 336 335 335 335 330 328 327 324 322 322 321 321 318 319 323 328 331 331 332 334 337 337 337 336 335 334 333 332 328 328 327 326 327
316 318 321 320 319 319 321 319 322 321 321 321 321 321 331 333 336 337 336 336 336 331 327 325 323 322 322 322 319 318 321 326 329 331 331 334 337 337 336 335 335 333 333 332 331 329 326 326 326
314 315 319 319 319 319 320 321 322 320 319 319 320 325 329 336 337 339 339 339 339 338 330 326 325 323 323 322 321 319 321 325 328 331 331 332 335 335 336 335 334 332 332 331 331 328 326 326 326
312 316 317 317 319 321 320 320 321 319 316 319 319 325 326 331 338 340 342 341 339 339 336 327 325 324 323 323 323 320 322 324 328 331 331 331 332 334 335 335 333 332 332 330 331 327 327 327 326
308 312 317 317 318 318 319 320 320 320 320 320 320 320 324 324 328 334 339 342 341 339 334 332 332 326 324 324 324 323 323 324 327 330 331 331 331 332 334 334 333 333 332 329 328 328 328 328 327
311 310 312 315 318 319 319 320 320 320 321 320 320 320 323 321 321 324 326 339 341 341 338 331 333 329 325 326 327 325 324 325 326 331 332 333 332 331 332 333 334 333 332 330 329 328 328 328 327
314 314 313 313 316 319 320 320 320 320 321 321 320 320 319 322 323 323 324 328 336 341 339 334 330 330 326 326 329 327 324 327 330 324 333 333 334 332 333 333 333 332 332 331 329 329 328 328 327
310 311 312 314 314 314 318 318 319 320 321 321 320 320 320 320 323 321 320 320 324 331 339 336 333 334 331 326 330 331 326 326 324 325 328 332 333 333 333 333 333 331 331 331 331 330 329 329 327
309 310 309 312 314 314 316 319 319 320 320 320 320 320 320 320 319 319 319 319 319 320 330 335 334 333 334 329 326 331 329 329 324 324 323 325 329 332 332 332 332 332 331 329 329 329 328 328 326
306 309 309 311 314 315 315 317 319 320 320 319 320 320 320 320 320 319 319 318 317 319 322 330 334 334 333 333 327 327 331 332 326 327 326 324 329 331 332 332 331 330 329 329 329 329 328 327 326
305 310 310 310 312 315 315 316 317 320 321 320 320 320 320 320 320 320 320 320 318 319 319 326 332 333 334 334 329 327 337 337 329 328 327 326 327 330 331 332 331 330 330 329 329 329 329 326 327
305 308 311 311 312 318 320 320 318 319 320 319 319 320 320 320 321 321 321 320 318 319 320 325 331 333 336 334 331 328 329 337 334 331 331 330 328 326 327 327 330 330 331 331 329 328 329 326 325
305 306 308 310 314 319 318 320 318 317 318 319 320 319 321 321 322 322 321 321 319 319 320 323 325 333 334 333 333 331 329 335 336 333 333 332 328 328 326 324 325 328 327 329 329 327 329 326 324
308 305 306 307 317 319 318 318 318 319 319 320 321 320 321 322 322 322 323 323 322 322 324 333 330 335 333 333 333 334 333 334 336 335 333 331 329 329 328 326 326 326 326 327 327 327 329 326 324
306 305 306 307 318 321 318 321 319 319 319 321 321 320 321 322 324 324 324 325 325 325 325 326 336 336 335 334 334 331 331 330 329 331 332 329 330 329 328 328 327 327 326 326 326 329 328 326 325
311 307 307 309 317 317 318 320 319 321 321 320 320 323 323 322 322 321 322 322 323 325 325 326 327 332 332 333 334 331 329 331 328 333 331 331 331 331 329 328 327 327 326 325 325 327 327 327 325
311 315 317 316 316 315 317 319 320 320 320 320 323 321 320 319 318 319 320 321 323 324 325 325 326 326 329 330 329 333 332 332 333 332 331 332 331 330 329 328 327 327 326 326 326 326 327 326 325
313 313 314 319 316 315 315 318 318 318 321 322 322 319 317 315 315 316 317 318 318 318 321 324 325 326 327 334 328 330 332 335 334 332 333 331 330 329 328 325 326 326 326 325 325 326 325 326 325
313 313 313 317 317 315 315 318 317 320 321 320 317 315 312 311 311 312 311 312 314 316 318 319 322 325 327 336 333 331 335 336 334 334 333 331 330 329 327 323 325 325 324 324 325 326 326 324 325
312 314 314 318 320 316 316 320 321 322 319 316 313 311 309 308 306 306 307 310 312 317 320 322 323 321 326 334 336 333 335 336 335 334 333 332 329 327 323 326 326 326 324 325 325 325 325 325 325
310 312 311 316 321 323 323 323 324 319 316 313 310 308 305 304 304 304 305 306 309 312 315 320 324 323 325 329 336 331 333 333 335 334 332 331 329 325 324 325 325 324 324 324 324 324 325 325 325
312 316 316 318 318 321 326 322 317 318 314 311 308 306 304 303 302 301 300 302 304 308 311 316 324 329 329 332 333 333 332 332 334 333 331 330 328 324 324 324 325 324 323 323 324 324 325 325 325
314 315 317 318 322 320 322 319 314 313 310 308 306 305 303 302 301 301 299 299 301 305 309 313 322 328 330 331 331 331 329 332 334 333 330 329 327 324 325 324 324 325 323 323 324 324 324 324 323

GFSSGP_850_thetae_108.txt.gz
Theta_e
309 310 314 319 313 309 313 313 313 315 317 321 323 323 324 330 332 333 339 340 330 323 323 321 320 320 319 319 319 320 326 332 336 338 338 336 335 332 330 329 331 334 335 335 335 335 334 335 336
309 311 317 319 311 310 311 313 317 317 318 321 323 323 327 333 337 338 340 332 323 323 322 321 320 319 320 320 319 320 324 330 335 338 338 336 337 333 331 331 333 334 334 335 335 334 333 332 332
308 314 318 314 308 310 310 313 315 317 319 318 322 323 326 333 336 337 335 325 323 323 322 321 320 319 319 320 320 320 323 329 334 338 338 337 337 335 333 333 334 333 334 334 334 332 330 330 330
309 315 318 313 312 310 312 313 315 314 318 319 321 322 329 332 333 334 332 322 323 323 321 321 320 319 320 320 319 319 323 328 334 337 338 337 337 337 334 334 333 333 333 332 331 329 327 327 331
312 317 314 312 312 311 312 313 314 314 315 317 319 320 330 334 332 331 322 321 323 321 322 321 320 320 320 319 318 320 323 329 334 337 337 337 337 337 336 335 334 334 334 331 329 326 325 326 328
314 314 312 315 314 313 312 315 314 314 316 317 319 321 329 333 333 330 325 321 322 321 322 322 321 320 320 319 317 319 322 329 334 337 337 336 336 336 336 336 335 334 332 329 328 328 325 324 327
314 311 312 315 313 313 314 317 315 316 317 317 320 319 328 334 333 332 327 323 322 322 322 322 321 320 320 320 317 318 320 327 332 333 334 333 335 335 335 336 335 334 333 331 328 328 326 327 327
318 313 316 316 316 315 315 317 317 318 318 321 321 318 331 335 335 332 329 328 326 324 323 322 321 320 321 321 318 318 320 325 330 330 331 332 334 335 335 336 335 335 333 330 330 328 327 327 326
315 312 318 318 318 318 319 317 319 320 321 321 320 321 327 334 336 335 335 333 331 327 326 324 322 321 321 321 319 318 320 324 329 330 330 332 335 336 336 336 335 334 333 332 330 328 328 326 327
312 312 317 317 317 317 319 319 319 319 319 318 320 323 327 334 335 336 336 332 330 327 328 326 322 321 322 322 320 318 319 322 327 330 330 331 335 336 336 336 335 334 333 332 330 328 326 326 326
308 316 316 317 318 318 317 317 319 319 319 319 318 330 332 334 335 335 335 334 331 326 328 328 326 322 322 322 321 319 319 322 325 330 330 331 334 336 335 336 334 333 332 332 330 328 326 326 326
305 308 312 313 316 316 315 317 317 317 318 319 320 326 333 336 336 336 336 336 334 334 333 330 328 325 323 324 323 321 320 321 323 327 330 330 332 333 334 335 335 333 333 332 330 328 327 326 325
307 308 308 308 309 311 315 317 317 317 318 319 320 320 336 337 337 337 336 338 337 336 334 332 328 325 324 324 325 324 322 321 322 324 329 330 330 331 332 333 334 333 333 332 330 328 328 327 327
308 308 310 312 311 310 311 313 315 317 318 319 320 320 325 337 338 338 339 338 338 339 339 337 336 327 324 323 325 327 324 323 322 322 327 330 330 330 331 332 333 332 332 332 331 329 328 327 328
305 304 306 308 309 311 312 311 312 315 318 318 320 320 319 324 326 331 334 337 333 337 337 339 337 333 327 324 326 328 326 326 324 322 325 330 331 332 331 331 332 331 332 331 331 331 329 328 328
303 303 303 306 308 310 311 313 313 314 316 317 318 320 320 319 320 323 322 323 327 326 330 335 338 337 335 330 325 327 327 327 325 325 322 325 329 332 332 332 332 332 331 331 331 330 330 329 329
303 302 302 304 307 308 309 312 313 314 315 317 318 319 320 320 319 321 322 321 320 321 323 322 332 338 337 334 330 327 328 329 327 327 325 324 327 330 332 332 332 332 332 330 331 330 329 329 328
303 302 302 304 307 308 308 311 313 314 316 317 319 319 319 319 320 320 320 320 319 319 319 319 319 330 339 336 333 332 334 331 330 330 326 326 325 328 330 331 331 331 331 331 329 328 328 328 328
306 303 303 303 304 308 309 309 317 315 315 316 318 319 320 320 321 320 320 320 320 319 319 317 318 322 339 338 336 334 333 332 331 332 329 329 325 326 329 330 332 332 330 330 330 329 328 329 328
304 308 307 304 304 306 314 316 315 316 317 317 317 318 320 319 320 321 321 320 320 320 319 320 318 319 328 337 336 335 331 331 331 331 330 330 330 328 328 329 330 332 332 331 330 330 329 329 328
302 303 308 308 304 307 314 315 316 316 317 318 319 320 320 320 319 320 320 321 321 322 321 323 325 323 329 336 337 335 332 336 336 333 332 330 332 332 330 327 327 328 330 331 329 329 330 329 328
306 305 308 310 306 306 315 314 316 316 317 317 318 319 320 319 320 320 321 321 323 325 330 337 338 336 338 339 338 335 331 331 331 329 329 331 332 332 331 330 327 326 325 326 327 328 329 329 327
307 306 307 308 305 307 313 318 316 317 319 318 317 317 315 313 315 319 317 316 316 320 323 328 337 342 340 337 337 336 333 333 332 331 331 330 332 332 331 332 330 327 326 326 326 328 327 328 326
308 310 310 311 309 307 309 317 315 319 318 322 317 313 310 311 313 315 316 316 316 316 318 322 325 330 331 338 338 335 334 334 333 331 331 329 329 330 329 331 329 328 328 326 326 329 328 325 325
309 311 310 310 312 314 314 318 316 322 323 318 312 309 306 305 308 312 315 317 317 318 317 317 318 322 325 327 333 336 336 334 332 330 330 330 330 329 330 329 330 329 330 327 326 326 325 326 326
311 310 311 317 319 317 316 318 319 316 313 310 307 305 304 303 304 306 308 311 313 315 317 318 318 319 319 323 327 330 334 335 335 332 333 333 331 330 331 332 332 329 328 325 326 324 325 325 326
310 312 311 316 316 312 316 319 318 314 312 308 306 304 303 301 301 302 306 309 311 314 316 319 319 320 321 320 324 328 331 334 334 333 335 334 332 332 330 329 329 327 324 325 326 323 323 326 326
311 312 313 311 311 311 319 320 321 313 310 307 305 304 302 301 300 301 302 306 308 311 314 317 320 322 324 323 321 327 331 334 333 331 334 334 333 332 330 329 327 323 325 325 323 326 325 325 325
312 313 315 315 317 317 320 319 313 310 308 305 303 302 301 300 300 300 300 302 305 309 311 313 318 320 325 326 328 327 333 333 331 330 332 334 333 332 330 328 323 325 325 324 324 324 324 324 325
314 315 315 315 317 317 319 313 306 308 306 304 302 302 300 298 298 299 301 301 302 304 307 308 313 314 321 326 331 333 333 333 332 330 330 334 333 330 329 327 322 325 325 323 327 324 323 324 324

GFSSGP_850_thetae_111.txt.gz
Theta_e
310 309 311 317 312 308 311 311 310 313 314 317 319 319 320 327 331 330 337 333 337 323 321 322 322 323 324 323 324 328 331 334 336 336 336 336 332 329 329 331 334 336 335 335 335 334 336 336 335
310 309 314 318 308 309 309 311 313 312 316 318 319 321 322 330 336 338 338 338 330 322 322 322 320 320 320 319 320 322 326 331 335 337 336 337 333 331 330 332 334 334 334 335 335 334 334 333 331
309 312 317 313 307 307 307 309 312 316 317 317 316 320 324 332 335 335 338 334 322 322 322 321 319 319 320 320 319 320 323 329 334 337 337 336 335 332 331 332 332 332 333 334 334 333 332 330 329
308 312 316 312 312 309 309 311 310 312 316 317 317 315 322 331 333 335 336 325 322 322 321 320 319 319 320 319 319 319 321 327 334 337 337 336 337 333 333 331 331 331 332 333 332 331 329 327 327
311 316 312 312 312 311 310 311 312 313 313 315 315 315 321 331 336 335 332 322 321 321 320 320 319 319 319 319 318 318 320 326 333 337 337 337 337 335 334 333 332 332 332 332 330 328 327 329 328
311 313 311 312 312 312 312 315 313 313 314 315 316 316 324 333 334 333 327 322 322 321 321 321 319 319 320 319 317 319 321 327 332 336 337 336 336 336 335 335 333 332 333 331 328 326 326 327 327
311 309 310 312 313 313 313 316 313 315 314 315 318 316 321 333 333 332 323 322 323 321 321 321 320 320 320 319 317 319 322 326 332 335 336 336 335 335 336 335 334 333 332 329 329 327 326 327 328
315 311 313 311 314 313 314 316 317 316 316 319 319 316 327 328 333 327 323 323 323 321 321 321 320 319 320 319 318 318 322 325 331 333 334 335 334 334 334 335 335 333 331 332 327 326 326 326 326
313 312 315 314 315 315 317 317 319 319 319 319 319 318 322 330 333 328 324 322 322 321 322 321 320 320 320 320 318 319 321 324 329 331 332 332 332 333 334 335 335 335 334 331 330 329 327 327 326
309 308 314 314 315 316 317 318 319 318 318 318 319 320 324 332 334 332 327 326 323 324 324 322 321 320 320 321 320 318 320 322 326 329 330 330 331 332 334 335 335 335 334 331 330 328 328 327 326
309 312 313 314 316 317 316 315 317 316 317 318 319 318 327 337 336 335 330 326 324 323 325 324 322 321 321 321 321 319 320 321 325 328 329 330 332 334 335 336 336 335 333 332 330 328 327 326 326
304 305 307 311 313 314 313 315 315 316 316 317 318 319 318 334 340 336 333 330 328 326 324 324 324 322 321 322 321 320 319 320 323 326 328 329 331 334 335 336 335 334 333 332 331 328 327 326 325
310 309 309 308 308 308 308 308 311 314 316 316 317 318 318 319 332 339 333 333 331 330 326 325 325 324 323 322 322 321 320 320 321 324 326 329 330 331 334 334 335 334 333 332 332 329 327 326 325
305 303 303 303 304 305 308 309 308 310 311 313 315 317 319 320 320 337 338 335 333 332 330 333 332 330 326 323 322 323 321 321 322 323 325 326 329 329 330 331 333 334 333 332 332 330 328 327 326
303 303 303 303 303 304 307 306 308 310 311 311 313 317 318 319 320 333 338 335 334 334 334 333 333 334 332 325 323 324 324 323 322 322 324 325 327 329 329 330 331 333 333 332 332 331 329 327 327
303 303 303 303 302 303 304 307 308 310 312 312 312 313 316 318 319 326 337 336 336 337 336 334 337 337 337 330 326 324 326 326 323 323 324 325 326 328 329 329 330 331 331 331 330 331 330 328 328
303 303 302 302 303 302 302 303 306 309 311 311 313 313 315 317 318 319 334 337 338 337 333 337 338 335 337 337 330 326 326 330 326 325 324 323 326 329 330 330 330 331 331 331 330 330 331 330 329
305 305 304 304 303 301 302 304 306 308 309 312 312 313 314 316 319 319 320 321 332 335 333 335 329 328 333 338 337 332 331 334 331 328 326 323 322 326 329 331 331 331 332 332 331 330 330 330 329
301 300 301 304 305 304 303 302 303 305 309 311 315 313 315 317 319 319 319 319 322 325 327 325 327 326 331 337 339 336 332 332 332 331 328 327 325 323 326 329 331 332 332 331 332 330 330 328 327
305 304 303 303 304 307 306 304 303 306 312 312 313 316 314 317 318 317 318 318 318 317 316 319 322 319 320 327 329 335 335 333 334 334 332 332 327 325 323 325 329 331 331 331 331 330 330 328 328
305 306 306 305 302 307 308 307 304 307 311 314 315 317 318 319 319 318 319 319 319 320 318 317 317 319 324 330 340 339 337 335 335 335 333 333 330 328 326 324 327 330 331 332 331 330 329 329 328
306 306 306 305 305 305 306 307 305 308 311 314 315 316 314 314 315 316 317 320 323 326 330 328 331 330 331 336 338 339 338 336 334 333 332 333 333 330 329 328 327 329 333 332 329 328 328 328 326
307 307 307 306 305 308 308 308 306 314 316 317 313 310 307 307 309 311 312 313 318 323 330 334 336 335 337 339 340 338 339 337 335 334 333 332 333 332 331 331 330 330 328 328 328 330 327 326 326
307 308 308 307 307 310 307 308 309 313 318 313 308 305 304 304 304 306 307 310 315 316 318 323 330 334 334 337 338 338 337 335 336 333 332 332 331 331 329 333 331 331 329 328 327 326 329 325 325
307 308 306 311 305 309 307 309 309 314 311 310 308 304 303 302 302 305 305 308 313 315 317 318 319 323 326 332 335 338 337 335 336 333 332 333 331 331 330 328 331 329 329 328 327 326 327 326 326
308 308 310 312 316 315 314 315 316 309 306 306 304 303 302 301 300 300 302 303 309 312 315 317 318 318 318 320 324 332 334 336 336 335 334 334 332 330 329 329 328 329 329 328 328 326 325 325 326
309 310 310 312 314 317 317 318 311 308 306 303 302 303 302 300 299 299 299 302 306 310 313 316 318 318 317 318 318 322 326 330 332 332 333 334 333 332 331 330 328 327 329 329 329 326 326 324 327
310 311 315 314 316 308 316 316 312 307 307 303 301 300 300 299 298 298 298 300 303 305 311 314 315 317 319 323 322 318 320 326 327 329 330 330 332 332 333 331 331 329 330 328 329 328 326 324 325
312 312 313 314 313 312 313 314 308 306 304 303 301 299 298 297 297 298 300 301 304 306 309 311 314 317 320 322 324 324 321 324 330 330 330 329 330 330 332 332 331 329 329 329 328 325 324 322 324
313 313 314 313 315 316 314 311 304 305 303 301 299 298 297 297 296 298 300 301 302 304 304 307 310 312 315 320 324 327 326 328 330 335 332 330 329 330 330 332 331 329 328 322 324 324 322 324 324

GFSSGP_850_thetae_114.txt.gz
Theta_e
313 309 310 315 310 307 308 308 309 312 313 315 317 317 317 322 332 331 333 336 326 325 326 328 330 330 331 333 334 335 334 333 334 333 333 333 332 333 335 337 339 337 336 334 334 334 337 338 335
311 309 313 316 306 307 306 309 312 310 312 315 317 318 320 325 332 336 336 331 331 325 322 322 324 325 328 330 333 334 333 333 333 334 334 333 331 330 331 331 332 333 334 334 334 334 336 335 334
309 310 314 311 305 305 306 307 310 313 314 314 315 317 319 329 333 336 332 333 332 323 321 322 322 322 322 324 328 330 330 331 333 334 335 335 332 330 329 329 330 331 333 334 334 333 333 332 329
308 313 313 311 310 308 307 310 310 310 314 315 314 312 316 323 330 334 336 332 325 321 322 321 320 319 319 320 322 325 325 328 333 335 335 336 333 331 330 330 330 331 332 333 333 332 331 329 328
310 313 307 311 311 310 309 310 312 311 312 313 314 312 316 320 322 334 335 330 321 322 322 320 319 319 319 319 320 322 323 327 332 334 335 336 335 333 333 331 330 331 332 332 332 332 329 327 327
310 312 310 309 309 311 311 313 312 312 313 314 315 314 317 320 324 336 335 327 321 322 321 320 319 319 319 319 319 320 321 325 331 334 336 336 336 335 334 333 331 331 332 332 331 329 327 326 327
308 308 308 310 311 313 313 315 312 314 314 314 316 315 319 319 325 336 335 324 322 321 320 320 319 319 319 318 317 319 321 324 330 334 336 336 336 336 335 334 332 332 332 331 329 326 326 326 327
314 308 312 310 311 311 313 315 316 315 315 317 318 315 316 319 320 335 333 322 322 321 320 320 319 319 319 319 317 319 321 324 329 334 336 335 335 335 335 335 333 333 332 330 328 327 326 325 326
312 310 312 312 314 313 316 316 317 318 317 319 319 319 319 320 321 329 327 322 322 321 321 320 319 319 319 319 318 318 321 324 329 334 336 335 334 333 334 335 334 334 331 329 328 327 326 326 327
308 306 310 310 313 314 315 316 317 317 317 316 318 319 321 320 329 333 327 322 322 321 321 321 320 319 320 319 319 318 320 323 327 331 334 334 332 331 332 334 335 333 331 332 329 327 327 326 326
306 307 309 310 311 312 313 313 316 315 316 317 317 317 317 317 322 337 329 324 323 322 321 321 320 319 320 320 319 319 319 320 325 329 331 331 330 330 331 334 334 334 334 334 329 329 328 327 326
307 305 305 305 307 305 304 308 308 311 313 314 315 316 317 317 319 330 335 327 325 322 321 321 321 320 320 320 320 319 318 319 321 326 328 329 329 330 331 334 335 335 334 332 330 330 327 327 326
303 305 307 305 302 303 304 304 306 308 308 309 309 309 311 314 316 318 328 333 329 325 321 323 322 321 320 321 321 320 319 319 320 322 325 327 329 329 331 333 335 335 334 332 332 330 328 327 326
302 302 302 302 303 303 303 302 305 306 307 308 309 309 311 313 314 317 319 327 337 331 327 327 325 323 321 321 321 321 319 319 320 321 322 325 327 328 330 332 334 335 334 333 332 331 328 326 326
303 301 303 304 303 302 302 302 302 304 305 306 308 310 311 312 312 316 318 320 326 336 333 331 327 326 324 323 321 322 321 320 320 320 321 323 325 328 330 330 331 332 333 333 332 331 330 327 326
302 302 303 303 302 303 302 302 303 303 303 305 306 308 309 311 312 313 316 318 320 333 335 333 330 330 331 330 326 323 323 322 321 321 322 322 324 327 329 330 329 330 331 333 332 331 331 329 327
301 303 303 304 303 301 300 301 302 303 303 303 305 306 308 311 312 313 314 316 319 326 336 335 333 334 332 335 332 325 324 324 324 323 322 322 322 325 328 328 329 329 330 332 332 331 331 330 329
301 302 302 303 304 303 304 304 303 304 303 303 304 307 308 309 312 313 314 316 317 326 335 335 334 336 334 337 335 330 326 325 325 325 324 323 323 325 326 328 328 329 330 331 331 331 330 329 330
301 301 300 301 301 301 301 303 303 304 304 303 303 304 307 309 311 313 314 315 316 331 337 336 336 337 337 339 339 336 330 328 327 327 326 325 324 324 326 327 328 329 330 330 331 331 330 330 330
303 304 304 303 302 304 303 303 303 304 305 305 305 304 309 310 313 315 315 315 315 318 331 337 338 338 338 339 339 339 337 333 330 329 329 329 327 324 324 324 326 329 330 331 331 331 330 331 330
302 303 302 302 304 305 303 302 303 304 304 305 306 308 312 313 316 316 317 317 317 316 317 322 335 339 338 337 339 338 339 337 335 334 331 330 330 329 327 326 325 327 330 330 331 331 332 330 329
303 303 303 304 306 307 304 306 305 304 304 306 308 306 305 307 309 311 315 319 321 320 318 317 319 320 325 333 338 339 338 337 335 335 333 332 332 331 331 329 328 325 330 334 332 329 328 328 327
304 305 306 306 307 307 306 308 305 307 309 311 307 305 302 303 304 305 308 312 317 324 325 326 323 320 324 335 334 341 340 336 337 336 335 334 333 331 332 331 330 328 328 334 329 328 328 327 326
305 305 306 307 306 308 306 306 306 315 315 310 307 304 303 301 302 303 305 309 313 317 325 327 329 330 330 332 334 336 336 337 335 337 336 334 333 330 331 333 331 330 330 330 330 329 328 328 326
305 306 307 308 310 310 307 305 309 310 309 307 306 304 302 301 300 300 301 304 310 313 316 321 324 329 331 332 332 334 335 336 335 336 335 328 331 331 330 331 331 331 330 330 329 329 330 329 326
305 306 310 312 313 315 311 312 310 306 303 302 303 302 301 300 299 298 298 300 302 308 313 315 318 322 326 329 331 332 333 335 338 337 336 335 334 332 332 331 330 331 329 329 329 329 328 327 325
307 308 310 312 312 314 317 311 308 305 303 301 299 299 299 298 298 297 297 300 302 304 308 313 315 317 318 319 320 327 332 336 336 336 336 333 332 332 333 333 331 331 330 328 328 328 328 326 325
308 309 314 312 315 314 315 311 309 304 303 301 299 298 297 297 296 296 296 300 303 304 305 309 313 316 318 319 320 321 320 323 330 333 334 333 333 331 332 332 332 331 330 329 327 327 327 327 325
312 311 312 313 313 315 314 310 307 303 301 300 299 298 296 296 295 295 296 297 299 303 303 307 313 316 318 321 322 323 323 321 320 324 330 332 332 332 332 332 332 331 331 329 328 326 327 326 325
312 313 313 315 314 315 313 307 303 303 302 299 297 295 295 295 294 295 296 297 301 301 299 304 308 312 314 316 320 321 323 324 325 322 327 330 333 331 330 330 330 330 331 330 329 327 327 325 327

GFSSGP_850_thetae_117.txt.gz
Theta_e
314 310 310 315 314 314 313 312 311 313 315 314 314 316 317 319 334 331 332 334 332 326 327 330 334 335 336 337 336 335 334 334 333 332 332 334 338 340 340 340 339 338 336 335 334 334 336 336 334
312 309 313 314 312 312 312 312 314 314 314 314 315 316 318 326 324 325 331 334 326 324 325 329 331 332 334 335 335 335 334 334 333 332 333 333 336 336 338 337 338 337 335 334 333 334 336 337 334
310 309 314 317 311 312 312 310 312 313 313 313 314 315 315 322 327 332 333 334 324 325 326 327 327 329 331 332 333 333 334 334 333 333 333 333 333 333 333 335 334 332 332 333 333 333 335 336 333
309 312 311 314 314 312 311 313 311 313 314 313 313 316 315 317 320 322 335 328 326 326 325 323 323 324 326 328 330 330 333 334 334 334 334 333 332 330 330 330 330 331 332 333 333 333 334 333 330
309 311 312 313 313 313 314 311 312 314 314 313 313 315 315 318 320 323 335 331 329 324 322 322 322 322 322 322 324 324 330 332 333 334 334 334 332 331 330 330 330 331 332 333 333 333 332 330 328
311 312 313 314 312 313 313 314 313 313 314 314 314 315 316 318 320 321 335 337 333 323 322 322 321 320 320 320 321 323 327 328 330 334 334 335 334 333 332 331 331 332 332 332 333 332 330 327 326
310 312 312 312 313 314 315 315 314 316 316 317 316 317 318 319 319 320 323 337 335 322 322 321 320 320 320 320 320 321 325 328 329 332 334 334 335 334 333 332 331 332 332 332 332 330 327 326 327
313 313 314 313 315 316 314 315 315 315 317 316 316 318 319 318 320 320 321 334 335 322 322 321 320 320 320 320 320 320 324 328 329 331 333 334 335 335 334 333 332 332 333 331 330 327 326 326 326
312 313 314 314 315 315 314 315 316 316 317 317 318 317 318 320 318 319 328 330 330 322 322 321 320 319 319 320 320 321 322 328 331 332 333 335 335 335 335 334 333 332 333 330 328 327 327 326 326
310 312 311 312 313 314 313 313 313 315 316 316 317 317 318 317 322 320 320 333 329 322 322 321 320 319 319 319 320 321 323 325 332 334 334 334 334 334 334 335 334 333 332 329 329 328 326 327 327
305 307 308 308 308 305 306 306 308 309 311 312 312 310 312 311 313 320 321 327 329 325 323 322 321 319 319 320 319 321 324 324 326 332 333 333 334 334 334 334 334 334 332 329 332 329 327 327 327
307 306 305 305 306 303 304 304 304 304 306 306 307 307 308 309 310 311 319 319 328 326 325 322 322 320 320 320 319 319 322 323 322 327 332 333 333 333 332 333 334 334 332 331 333 329 328 328 327
304 304 304 304 303 303 303 304 304 304 304 305 305 305 307 307 309 310 312 318 323 330 325 323 322 321 320 320 320 319 319 322 323 322 328 331 331 330 330 332 334 334 334 334 334 329 329 328 327
304 303 303 303 303 304 304 304 303 304 303 304 304 304 305 307 308 310 311 314 323 318 330 323 323 321 320 320 320 320 319 319 321 322 321 327 329 329 329 331 333 334 335 335 333 331 330 328 327
302 303 304 304 304 304 303 304 304 304 303 303 303 304 304 304 306 309 310 311 314 322 321 329 323 322 321 320 320 321 320 319 320 321 320 322 326 328 329 330 333 334 335 334 332 332 331 328 327
304 304 304 304 305 304 304 305 305 304 304 304 304 304 304 304 304 306 308 311 312 319 327 324 327 323 322 321 321 321 321 320 320 321 321 320 323 326 328 329 331 333 334 334 333 332 332 329 328
303 304 304 304 304 304 304 304 305 304 304 304 304 304 304 304 305 306 307 309 312 316 316 317 332 327 326 324 322 321 322 322 321 321 322 320 321 324 327 328 330 331 332 334 333 333 332 331 330
303 303 303 303 303 303 303 304 304 303 304 304 304 304 304 304 304 305 307 308 310 313 314 316 320 335 331 329 325 324 323 323 323 322 321 322 320 321 326 328 329 330 330 331 333 333 332 331 331
303 303 303 303 303 304 304 303 304 306 305 305 304 304 304 304 304 305 306 308 311 314 314 324 327 334 335 333 329 330 328 325 325 324 323 323 322 321 322 326 328 329 330 330 331 332 332 331 330
303 303 304 304 304 303 304 305 306 306 306 305 305 304 304 304 305 306 309 311 313 314 314 333 334 335 336 334 334 335 335 331 327 327 326 326 324 323 322 322 327 328 329 330 330 331 331 331 330
304 304 304 304 304 304 305 307 306 307 306 306 305 305 306 308 308 309 311 314 315 314 317 335 337 338 337 336 336 336 336 335 332 329 328 328 326 325 324 323 324 327 329 329 330 330 331 330 329
305 304 304 304 305 307 306 309 308 308 310 309 307 305 303 303 304 304 308 311 315 316 315 326 338 339 338 336 336 335 333 334 334 334 331 330 330 328 327 325 324 324 326 328 329 330 331 330 328
305 304 305 306 307 307 307 309 307 310 309 308 304 304 303 302 302 301 302 304 309 317 320 319 324 338 336 336 336 336 336 335 334 336 335 334 333 331 330 328 328 327 326 326 326 329 330 331 330
306 307 307 308 308 309 308 308 309 307 306 305 302 302 302 301 300 300 300 303 306 312 319 322 327 331 334 335 338 338 335 335 335 335 336 335 335 334 332 330 329 330 330 328 327 327 329 329 327
307 308 311 310 312 311 311 309 308 307 304 302 300 298 300 299 299 299 298 301 305 310 315 319 322 325 327 328 331 332 333 334 335 336 335 337 336 335 334 331 330 330 330 330 330 329 330 329 329
307 308 311 313 312 313 312 312 307 305 301 300 298 297 297 298 297 297 297 299 302 305 310 316 320 322 325 327 329 330 332 333 334 334 334 336 336 334 335 334 332 330 331 331 331 329 329 329 328
309 310 309 313 312 314 314 309 307 302 301 299 298 297 296 295 296 295 295 296 300 303 306 311 315 319 321 324 327 329 329 331 333 333 333 334 334 335 333 332 333 332 332 331 332 330 328 329 328
310 309 315 313 315 314 315 309 306 303 302 299 297 296 295 294 294 294 294 294 296 301 304 309 312 314 315 316 319 322 324 328 330 331 332 333 334 333 334 331 332 332 332 332 332 331 329 328 328
311 312 313 315 315 317 316 309 305 303 300 298 296 294 294 293 293 293 293 293 294 299 303 306 309 311 313 315 317 318 320 321 321 322 328 331 331 331 331 330 331 330 331 330 332 332 330 329 327
311 313 313 314 315 316 311 306 303 302 300 296 295 293 292 292 292 291 292 292 295 299 301 303 307 309 311 312 314 317 318 320 322 323 321 321 329 330 329 329 329 331 330 330 330 330 330 329 327

GFSSGP_850_thetae_120.txt.gz
Theta_e
314 313 313 316 319 318 319 319 318 318 319 319 318 318 319 321 323 331 335 333 334 336 327 331 333 336 337 337 336 335 334 333 334 335 339 341 341 340 338 336 337 336 335 335 335 334 335 335 333
313 310 315 317 318 320 320 319 318 318 317 316 317 318 321 323 327 327 335 335 336 338 330 331 334 336 336 336 335 336 334 334 334 333 336 340 341 340 339 338 338 337 336 335 334 334 336 335 333
311 311 318 320 321 321 322 318 317 317 315 316 317 318 318 321 322 327 332 332 336 342 330 331 333 335 334 334 334 335 334 334 333 333 334 337 340 340 340 339 338 337 336 335 333 334 336 335 334
315 315 315 320 322 321 319 318 317 317 317 316 317 319 317 318 322 329 335 337 334 342 337 330 333 332 333 331 332 333 334 334 333 333 333 335 337 337 337 336 336 336 335 334 333 334 337 336 333
313 316 321 321 322 322 320 319 319 320 319 318 318 320 320 320 327 327 329 337 339 343 342 332 333 331 330 329 330 333 334 334 334 334 334 334 336 335 334 332 332 333 334 334 333 334 334 334 331
316 316 321 322 322 320 319 319 319 319 319 319 319 320 320 322 325 328 328 334 334 340 335 332 333 332 328 327 328 331 333 334 334 334 334 334 333 332 331 330 331 332 333 334 333 333 333 331 329
316 317 318 319 319 320 319 319 319 320 320 320 319 321 321 321 328 329 322 324 335 333 332 331 330 329 328 325 325 328 330 331 334 335 334 333 333 332 331 331 331 332 333 333 333 333 331 328 327
315 317 316 317 317 317 318 317 317 317 319 318 319 321 322 321 323 327 332 325 332 337 329 330 330 328 327 324 325 325 326 327 333 335 335 334 334 332 332 332 331 332 332 333 332 331 328 327 328
312 314 315 315 316 316 316 317 317 317 317 317 318 319 319 319 317 318 324 331 339 338 332 331 331 325 324 323 323 325 324 326 331 335 335 335 335 334 333 333 332 332 332 333 331 328 327 327 327
311 313 313 314 314 315 314 313 312 312 313 314 313 314 316 314 314 314 315 321 331 339 337 333 330 326 322 321 322 325 325 327 331 335 336 336 339 338 338 335 333 332 333 332 329 327 327 327 332
308 310 310 311 310 309 309 308 308 308 310 310 309 309 308 309 311 313 313 315 322 332 338 330 327 326 324 323 323 322 322 335 334 335 339 338 338 338 338 337 334 333 333 331 329 328 330 333 337
308 308 308 308 307 307 307 307 307 307 307 306 306 306 307 308 308 309 311 312 314 325 335 337 327 325 323 329 323 323 321 323 332 335 338 340 338 338 338 339 337 336 334 336 334 336 336 335 334
307 308 306 306 306 306 306 307 307 307 306 306 306 306 306 307 307 307 309 311 313 316 326 335 331 324 322 323 330 322 320 321 323 327 334 338 337 335 339 340 340 337 337 336 336 336 334 332 333
307 306 306 306 307 306 307 307 307 307 306 306 306 306 306 306 306 307 307 309 311 314 321 333 335 325 323 322 324 321 320 321 322 325 327 334 332 334 338 339 339 338 337 336 336 336 334 333 333
306 307 308 309 307 307 306 307 308 307 307 307 306 306 306 306 306 306 307 307 309 312 314 327 336 331 324 322 322 321 320 321 322 322 325 330 330 332 334 335 337 337 336 334 335 335 334 334 333
308 308 309 309 308 307 306 308 309 307 307 306 306 306 306 307 307 306 306 307 307 309 312 316 333 336 328 323 322 321 321 321 322 323 324 326 328 329 332 331 331 334 334 334 335 334 335 334 333
308 308 308 308 308 307 306 307 308 306 306 306 306 306 307 307 307 307 306 307 308 308 311 314 324 337 334 325 322 322 321 321 331 336 323 323 325 327 328 330 331 332 333 334 335 334 334 335 334
308 309 309 309 308 308 308 308 308 307 307 307 308 308 308 307 307 307 307 307 307 308 311 313 317 336 336 333 324 325 329 323 332 335 331 322 323 325 327 328 329 331 333 334 335 334 332 334 334
307 307 308 309 309 307 308 308 309 309 308 309 308 308 308 308 307 306 306 306 307 308 314 315 316 327 337 337 334 332 333 329 332 335 334 324 323 324 325 326 327 329 331 331 333 334 334 333 334
308 308 309 309 308 308 309 309 311 310 311 311 311 310 309 309 308 307 306 307 312 313 314 317 319 324 336 336 336 333 331 330 332 333 333 327 322 324 325 324 325 327 329 330 330 332 334 333 333
310 309 309 308 309 310 310 311 311 311 310 307 306 306 306 307 307 308 310 311 311 312 313 316 324 325 334 335 337 336 335 334 334 333 333 324 323 324 325 325 325 326 328 328 329 329 333 333 332
311 308 307 307 310 312 311 314 312 310 309 306 304 302 302 302 302 304 305 305 306 307 310 313 323 333 335 336 337 336 335 333 334 334 331 325 325 326 326 326 325 324 325 327 327 329 330 332 332
309 309 308 309 311 312 312 313 313 309 307 305 303 300 299 299 300 301 300 300 301 307 312 313 320 334 338 336 337 336 339 338 338 336 335 331 328 328 328 327 327 325 324 325 326 327 329 330 331
309 310 312 312 312 315 313 314 314 308 305 303 301 299 298 296 298 299 299 299 300 302 308 314 316 332 337 338 338 337 337 337 337 334 334 333 334 332 331 330 328 327 326 326 326 326 328 330 330
310 313 316 316 318 314 314 315 310 306 304 302 300 298 297 295 295 296 297 297 298 298 304 312 313 323 330 334 334 337 335 328 337 336 337 335 332 334 334 333 332 329 328 329 329 329 329 329 328
312 313 314 316 316 316 313 315 310 304 302 299 298 296 296 294 293 293 295 295 296 297 300 312 312 320 323 327 329 333 335 337 336 335 338 336 335 336 334 335 335 333 332 332 332 332 331 331 331
312 313 313 314 315 316 317 312 307 304 302 299 297 295 295 293 292 292 293 293 294 295 297 310 310 315 321 325 328 331 332 333 333 333 332 333 334 333 337 336 336 335 333 332 334 333 332 332 331
313 312 314 316 318 319 318 312 309 304 301 300 297 295 293 293 292 291 291 291 292 294 297 305 304 312 314 320 321 325 328 328 328 330 332 332 333 333 333 333 335 334 333 332 332 332 331 330 332
312 313 313 314 315 318 318 313 305 303 300 298 295 294 292 292 291 290 290 290 290 292 296 299 302 310 312 314 316 318 319 322 324 325 327 329 330 330 331 332 333 332 331 330 330 329 328 325 333
309 312 314 317 317 317 317 310 303 301 298 296 294 293 292 291 290 289 289 290 291 292 294 301 304 307 308 310 312 316 317 319 320 321 321 322 323 327 329 330 330 330 329 329 331 330 329 330 332

GFSSGP_850_thetae_123.txt.gz
Theta_e
316 317 317 319 322 321 322 323 323 321 322 321 320 320 321 321 324 328 329 341 342 341 343 334 334 335 335 337 336 335 333 333 338 341 342 342 341 338 336 334 334 334 335 335 336 336 336 336 335
317 317 318 322 323 324 324 325 322 322 320 319 319 319 321 324 326 327 330 335 340 343 350 334 333 334 335 337 336 335 334 333 334 337 339 342 341 338 337 335 335 335 335 335 335 335 335 336 334
316 317 321 324 325 325 325 324 322 320 318 319 319 320 320 322 323 326 331 338 343 344 348 343 333 334 336 337 336 335 335 333 333 334 336 340 341 339 338 336 337 336 335 335 334 334 336 335 334
317 319 320 323 325 326 325 324 322 322 321 320 320 322 321 320 325 328 330 339 343 345 348 346 337 335 337 337 336 335 334 334 334 333 334 339 341 340 339 338 338 337 336 335 334 334 335 335 334
316 320 323 324 325 325 325 324 323 324 324 323 322 323 323 323 326 329 332 335 343 345 347 347 339 337 338 337 335 334 333 334 334 333 333 336 340 340 339 338 337 337 335 334 333 334 336 336 334
317 318 321 323 323 324 325 322 322 323 323 323 323 323 324 323 327 329 332 336 343 343 347 349 342 339 338 337 335 332 331 334 335 334 333 335 337 338 338 336 336 334 333 334 334 334 335 335 332
317 318 319 320 320 321 321 320 320 320 320 321 321 322 322 324 325 322 327 336 342 347 347 349 341 339 338 337 335 332 331 332 334 334 334 335 336 335 336 335 334 333 333 334 334 333 333 332 330
314 317 318 318 319 320 320 318 318 318 319 320 320 322 324 322 321 319 319 325 339 345 349 348 347 340 338 338 335 334 332 332 334 334 334 335 335 334 334 333 333 333 333 333 333 333 333 329 328
313 313 314 316 317 318 317 318 318 317 315 315 316 319 319 319 318 316 317 319 323 338 346 348 348 346 343 342 336 334 334 334 334 334 334 334 334 333 333 333 334 332 333 333 333 333 330 328 328
311 314 314 316 315 316 315 314 313 312 312 312 313 314 314 313 312 312 314 317 318 321 339 346 347 346 345 343 342 335 332 333 334 334 334 335 339 340 340 338 334 333 333 333 333 331 328 328 331
310 311 313 311 312 311 311 311 310 311 311 311 311 310 310 310 310 310 311 313 316 317 321 341 344 344 338 343 342 341 340 339 338 338 339 338 340 340 342 338 335 333 333 333 332 329 328 329 336
311 312 311 310 310 309 310 309 309 309 310 309 309 309 309 309 309 310 310 310 313 315 317 329 342 342 339 336 340 337 339 339 339 340 340 339 340 340 339 340 340 336 335 337 333 333 335 335 336
310 311 310 309 309 309 309 309 310 309 309 309 309 309 308 309 309 309 309 310 310 312 315 317 333 340 337 335 340 337 339 334 339 340 339 338 340 339 340 340 339 338 338 338 336 336 335 335 335
310 310 310 310 310 310 311 311 309 310 310 310 309 309 309 309 308 309 309 309 310 310 312 314 318 337 340 337 339 339 339 338 333 338 342 338 338 339 339 339 339 338 338 336 336 336 335 336 335
309 310 312 312 311 310 310 310 311 310 310 309 309 309 309 309 309 309 309 309 309 310 310 312 315 326 338 339 338 339 339 338 323 323 340 338 338 340 340 338 338 337 338 336 335 335 335 335 334
311 312 313 313 312 310 310 310 311 310 310 309 309 309 308 308 308 308 308 309 309 309 309 310 312 316 335 337 337 338 338 336 324 321 325 341 339 338 337 338 339 336 336 336 336 336 336 334 334
314 313 312 312 313 311 310 311 312 311 310 310 310 310 310 310 310 310 310 309 309 309 309 310 310 313 321 337 336 337 337 337 332 327 323 333 341 337 334 339 337 339 336 337 336 337 337 334 334
312 311 312 312 313 312 311 312 312 311 311 311 312 313 312 312 312 311 310 310 308 309 309 309 310 312 315 333 336 336 337 337 336 335 337 325 330 337 335 334 332 331 334 332 335 337 335 336 333
311 312 312 313 313 311 312 312 312 313 314 313 311 310 309 309 309 309 311 311 309 308 308 309 309 312 315 326 336 335 337 335 332 334 336 335 323 329 333 333 332 330 334 330 332 334 335 337 334
312 313 314 313 312 311 312 313 314 313 314 310 309 308 306 304 304 305 306 310 312 314 314 314 314 316 317 318 334 335 336 335 331 333 335 338 326 321 331 328 328 328 334 330 332 333 334 336 335
313 314 314 312 311 312 314 314 314 315 313 309 307 305 304 302 301 301 302 303 306 308 310 313 314 314 317 320 334 335 337 334 334 333 335 336 336 325 326 327 326 327 329 329 333 331 332 333 333
314 313 311 311 312 314 313 316 315 314 311 308 306 303 301 300 300 298 298 299 300 302 302 307 309 313 316 321 332 334 336 335 334 334 334 336 337 331 324 325 326 327 327 327 329 329 330 330 333
313 313 313 313 315 316 315 317 316 313 310 307 305 301 299 299 298 297 296 296 298 299 300 305 309 312 312 311 331 336 335 336 335 334 335 336 337 336 325 325 326 326 326 326 328 329 329 328 330
313 314 315 316 317 317 317 316 317 309 306 305 302 300 298 298 296 296 295 294 296 297 299 302 306 310 316 319 332 335 334 337 336 336 337 337 337 334 336 327 325 325 325 326 327 329 329 328 328
314 315 317 316 319 318 316 316 312 308 305 303 301 298 297 296 295 294 292 293 294 295 297 300 302 309 320 322 332 334 335 336 337 338 338 338 337 333 337 336 333 329 327 327 328 328 328 328 329
313 314 315 315 317 316 315 318 312 307 304 301 299 297 296 295 294 291 291 291 292 293 295 297 300 305 318 317 325 331 335 335 335 331 327 337 338 336 334 335 336 337 334 331 333 331 331 332 331
314 314 315 318 316 320 318 315 310 306 304 300 297 296 295 294 292 291 290 290 290 292 293 295 297 302 313 314 319 323 326 327 326 323 320 334 336 336 336 334 336 337 336 335 335 335 333 332 332
313 314 315 317 320 319 317 315 313 305 302 300 298 295 294 293 291 290 290 289 290 291 292 295 296 301 310 314 314 316 321 323 323 321 324 331 333 333 334 333 332 334 336 336 337 335 333 327 332
314 315 315 316 316 319 319 315 305 303 300 299 297 294 293 292 291 290 289 289 289 290 291 294 295 302 306 305 305 312 313 318 323 325 326 329 331 332 334 333 332 334 333 334 334 335 334 333 331
311 313 312 316 316 318 323 313 303 302 299 297 295 294 292 291 290 290 289 289 289 290 291 294 297 300 302 305 309 311 314 321 321 319 322 324 324 326 328 329 330 329 330 330 333 333 333 330 330

GFSSGP_850_thetae_126.txt.gz
Theta_e
318 320 319 320 322 322 322 323 325 322 322 321 320 320 320 320 322 328 332 334 339 342 343 343 337 336 337 339 336 334 332 332 333 337 342 342 341 338 335 334 333 332 334 334 335 334 334 335 336
318 319 319 321 324 324 324 325 323 322 321 320 320 320 321 323 325 327 330 333 342 342 347 346 339 337 339 337 336 334 333 332 331 335 339 342 341 339 337 334 334 334 335 335 335 336 335 336 335
317 319 320 324 325 325 325 325 323 322 319 320 320 321 321 321 322 328 331 335 342 344 349 347 340 339 340 337 336 335 334 333 331 333 336 339 341 340 338 335 335 336 335 335 335 334 334 336 334
319 320 320 323 324 325 325 326 323 324 323 320 321 322 322 321 324 329 333 336 344 346 349 349 340 339 338 338 337 335 335 333 332 332 334 336 339 341 338 337 336 337 336 335 334 334 334 335 334
317 319 322 324 324 325 325 325 325 324 324 324 324 323 323 325 328 328 331 337 344 345 348 348 346 339 338 338 337 336 335 334 333 332 332 333 337 340 339 338 337 336 336 335 334 333 334 336 335
317 318 319 320 322 323 323 324 323 322 322 322 322 323 324 327 325 322 324 330 335 344 347 349 348 346 339 338 337 336 335 334 333 332 332 333 335 339 339 339 337 336 336 334 333 333 335 336 335
316 318 317 318 319 320 321 321 321 320 320 320 321 322 322 324 322 321 319 322 327 336 346 349 349 344 340 338 337 337 335 335 334 333 333 333 335 338 338 338 336 334 334 334 334 333 334 335 333
314 314 314 316 317 318 318 318 319 319 319 318 318 319 320 321 317 317 316 316 320 332 341 348 348 342 340 338 337 337 336 335 334 333 333 334 335 337 335 337 334 333 333 333 333 333 333 333 330
311 313 313 314 315 316 316 316 317 316 314 314 314 314 315 317 313 312 312 313 316 319 323 339 346 347 341 339 338 336 336 335 334 334 334 334 336 336 336 336 334 332 333 333 333 333 333 331 327
311 312 313 315 314 313 313 313 313 312 312 312 312 312 312 312 311 311 311 311 312 314 318 324 338 346 345 341 340 337 335 334 332 333 334 334 336 335 333 334 333 333 332 333 333 333 332 328 327
312 312 313 313 312 312 311 311 311 310 310 311 311 310 310 310 310 310 310 311 311 311 314 317 332 338 344 345 344 342 337 335 332 330 332 334 335 337 336 337 336 334 333 332 332 332 330 327 335
312 312 313 312 312 311 311 310 310 310 311 310 310 310 310 310 310 310 310 310 310 311 311 314 316 339 339 343 343 344 342 336 331 328 330 333 335 338 339 339 337 335 333 332 332 332 329 328 336
311 312 312 312 311 311 311 311 311 311 311 311 311 311 310 310 310 310 310 310 310 310 310 310 312 319 337 339 339 343 343 342 338 332 331 334 335 337 340 337 338 337 336 334 334 332 329 334 335
311 312 311 311 311 311 312 312 311 311 312 311 310 310 310 310 310 310 309 310 310 310 310 310 310 312 325 336 336 337 341 341 341 340 337 333 335 338 340 337 338 338 337 336 336 335 336 334 335
311 311 311 313 313 312 311 311 311 312 311 311 311 311 310 310 309 309 309 309 309 309 310 310 309 311 311 331 338 335 342 340 339 342 341 336 336 338 337 337 338 338 336 336 336 335 335 334 334
311 312 313 314 314 313 312 310 312 312 312 312 311 311 312 313 313 313 313 312 312 312 311 310 310 309 310 315 332 334 337 341 341 338 342 335 336 338 338 339 337 338 336 336 335 335 334 334 334
314 313 314 313 314 313 312 312 313 312 312 313 314 313 312 311 311 310 309 309 311 312 311 312 310 310 309 310 321 334 335 338 340 339 333 336 337 337 335 337 338 335 335 335 334 335 335 335 334
314 312 311 312 313 313 313 312 312 312 313 315 313 311 310 309 308 306 305 306 308 310 312 312 311 310 310 310 313 323 333 334 339 339 333 335 335 335 336 337 340 336 337 335 335 335 335 335 334
312 311 311 313 314 313 312 312 312 313 315 313 311 309 308 307 305 304 303 302 304 306 310 312 313 311 313 309 314 323 327 333 336 339 335 332 329 328 337 335 340 338 338 337 335 335 335 336 335
311 312 313 314 314 313 312 311 313 314 313 310 309 307 306 304 302 302 301 299 299 301 303 307 312 314 315 315 316 320 325 330 333 339 335 336 330 325 329 338 334 333 336 335 335 334 336 336 334
312 313 314 314 312 312 312 313 313 314 311 309 307 305 303 301 300 300 299 298 297 297 300 301 307 311 314 314 315 316 319 329 332 337 334 338 336 334 327 328 335 330 327 332 335 335 337 335 334
312 314 313 313 313 314 314 316 315 315 312 308 305 303 301 299 299 298 297 296 295 296 297 299 300 307 309 311 312 314 316 320 332 336 335 337 338 335 333 327 333 331 330 330 335 336 338 338 334
314 313 314 313 314 315 316 317 314 314 310 307 304 301 299 298 297 296 294 294 294 294 294 296 298 302 308 308 307 309 310 317 330 334 336 337 337 336 334 329 334 335 330 326 328 337 339 337 334
313 313 314 315 316 319 317 318 315 310 307 305 302 300 298 297 295 294 292 291 291 292 294 295 298 301 305 307 309 310 307 307 322 333 335 336 339 338 335 332 332 335 333 326 325 330 334 338 335
313 315 316 315 319 318 315 315 314 308 305 303 301 298 296 296 294 293 291 290 290 291 293 295 297 299 303 307 309 315 313 314 311 331 335 336 339 338 335 335 336 338 335 329 328 330 329 333 337
314 314 315 314 317 318 315 316 310 307 304 301 299 297 295 295 293 292 290 290 290 291 293 295 296 299 302 306 308 316 319 316 325 333 333 337 338 339 337 336 334 339 336 337 335 335 336 335 335
314 314 315 317 315 318 317 315 311 306 303 300 297 296 294 294 292 291 290 290 290 292 292 294 296 297 299 302 305 318 322 323 330 327 325 327 337 336 335 337 338 337 335 334 333 333 332 331 331
312 313 315 317 319 317 316 319 315 304 302 300 297 295 294 293 291 291 290 289 291 291 292 293 295 296 297 299 303 317 321 321 324 327 325 322 321 324 333 333 333 333 334 334 335 335 334 334 332
314 315 316 316 317 318 320 315 305 303 300 298 296 295 293 292 291 290 289 289 290 291 291 292 293 295 296 296 303 316 317 320 321 323 322 324 326 327 328 329 331 332 332 331 332 332 333 333 333
312 313 312 314 313 316 316 314 303 302 299 297 295 294 293 292 291 290 289 289 289 290 290 291 292 293 295 297 307 309 307 308 314 320 321 322 325 325 325 329 330 330 331 331 330 331 333 333 331

GFSSGP_850_thetae_129.txt.gz
Theta_e
317 319 319 320 316 313 315 317 317 317 318 319 320 319 318 322 325 334 333 340 341 340 344 344 339 337 334 338 335 333 331 331 333 335 339 341 341 339 336 334 333 332 333 334 335 335 334 333 333
318 319 319 319 317 318 317 319 316 316 319 320 320 320 319 323 330 333 330 329 344 344 346 347 345 339 337 339 336 334 332 332 332 334 338 341 341 340 338 335 335 334 334 334 334 334 335 335 335
318 319 319 316 317 318 318 321 319 318 320 320 320 321 321 321 329 333 334 329 345 346 350 348 346 341 338 339 336 334 333 332 331 333 336 339 340 340 338 336 335 335 334 334 334 334 333 334 335
317 318 319 316 319 319 320 321 321 321 320 321 322 320 326 326 325 330 328 326 343 350 349 348 345 341 340 339 336 335 333 332 330 332 333 335 337 339 339 337 336 337 335 335 334 333 333 334 334
317 318 315 318 318 320 320 319 322 319 321 320 321 320 325 324 326 325 324 325 335 344 349 347 347 342 339 338 337 335 334 333 331 331 331 333 335 338 339 338 336 336 335 335 334 332 333 335 334
315 316 313 314 315 317 316 317 319 319 318 319 319 321 323 322 321 323 322 321 322 328 344 348 348 348 345 338 337 336 335 333 332 331 331 331 332 337 339 338 337 336 334 335 333 332 333 335 335
313 310 312 313 314 315 316 317 316 318 317 315 315 317 320 316 315 315 317 319 318 326 323 343 347 347 345 342 338 336 335 334 332 332 331 330 331 335 339 338 337 335 334 333 333 332 333 335 334
311 307 311 311 312 314 314 315 314 312 316 313 314 315 313 313 311 311 312 315 316 315 318 320 337 339 346 342 338 337 336 335 334 333 332 331 331 334 338 338 337 335 333 332 332 333 333 333 332
310 306 307 310 311 310 312 311 312 311 311 311 311 311 311 312 310 310 310 311 311 313 313 318 322 334 339 345 339 337 336 335 334 334 333 332 332 334 337 337 337 334 333 332 332 332 332 332 330
308 304 308 310 310 309 311 311 311 310 310 310 310 310 310 310 310 310 310 310 310 311 311 311 321 327 337 339 342 338 337 336 334 334 332 331 333 334 335 334 336 334 333 332 333 333 332 332 328
309 306 308 310 312 311 309 310 310 309 308 310 310 310 310 310 310 309 309 310 310 310 310 310 311 320 333 338 341 342 338 338 335 334 334 331 332 334 335 334 335 334 333 332 332 332 332 331 327
309 310 311 311 311 310 309 310 309 310 310 310 310 310 310 310 310 309 310 310 310 309 309 310 310 310 322 336 340 340 344 341 340 335 334 333 332 333 334 333 333 333 333 332 331 331 332 329 328
308 309 311 311 311 310 310 310 309 310 311 311 311 310 310 310 310 310 310 310 310 310 310 310 310 310 310 316 333 337 338 342 342 338 334 333 332 332 333 335 334 335 334 333 332 332 332 327 333
310 311 310 311 310 310 309 309 310 311 311 311 311 311 310 311 311 312 312 312 312 312 311 311 311 310 309 310 314 331 336 339 342 339 335 332 331 331 334 338 336 336 336 335 332 332 332 328 334
310 308 307 309 310 309 311 309 308 311 311 311 311 312 313 312 312 311 310 311 310 311 311 312 312 312 311 310 309 318 327 337 340 339 340 337 333 334 335 338 338 336 335 336 335 335 333 333 334
309 308 308 310 310 311 309 308 309 311 311 311 312 311 311 310 309 309 308 309 309 308 310 311 311 311 312 311 311 309 311 330 334 337 340 339 337 334 336 337 339 337 336 336 335 335 335 334 333
308 308 309 310 310 310 308 309 311 312 312 312 310 309 308 307 308 308 307 306 306 306 306 307 310 311 311 312 313 313 309 322 331 335 339 340 340 339 335 335 337 337 337 337 335 336 334 333 333
310 310 307 307 308 309 308 309 309 311 311 309 307 306 304 304 303 303 302 302 303 304 304 303 304 308 310 310 310 311 311 311 327 333 336 339 339 339 335 336 337 337 337 336 335 335 334 333 333
310 309 307 307 309 311 309 308 308 309 308 306 304 303 302 302 301 300 299 299 298 300 302 301 300 304 308 311 312 310 310 318 326 325 332 338 337 338 335 337 338 336 336 336 333 333 333 334 334
309 309 309 309 311 311 308 307 308 309 307 305 303 302 300 299 298 298 297 296 296 297 297 298 298 300 303 306 311 312 314 313 325 328 329 331 338 337 335 336 337 335 336 337 335 333 333 334 334
309 309 309 311 311 310 310 309 310 309 307 305 303 300 299 298 297 296 295 294 294 294 295 294 294 296 300 303 307 311 313 314 316 324 327 330 337 337 333 336 337 336 338 337 335 335 333 334 335
309 310 312 312 312 311 310 310 312 310 307 305 302 299 298 297 296 295 294 293 292 291 291 292 294 295 298 301 304 307 310 312 313 317 322 331 333 336 334 334 333 337 338 337 335 335 334 334 334
309 313 312 312 311 310 312 313 311 311 308 304 301 298 297 296 295 294 292 291 291 290 290 292 293 294 296 299 302 304 307 309 312 312 318 324 331 336 334 333 333 328 338 339 338 336 333 333 332
312 312 311 312 312 311 313 314 313 307 305 302 300 297 296 295 294 293 291 290 290 291 292 293 294 295 296 298 301 303 305 307 308 311 311 317 321 332 336 335 336 332 332 329 327 332 333 335 334
311 311 312 312 312 314 314 312 307 304 302 300 298 296 295 294 293 291 290 290 290 290 291 293 294 295 297 298 301 303 306 308 309 307 309 311 312 320 336 337 338 335 332 334 338 336 336 334 334
311 311 313 314 313 313 313 313 306 303 300 299 297 295 294 293 291 291 290 290 290 290 292 293 294 294 296 298 301 304 307 310 309 309 314 321 319 320 334 338 338 336 330 329 337 336 335 335 333
312 311 312 315 314 309 312 310 308 303 301 299 297 295 294 292 291 290 290 290 290 290 291 293 293 293 295 296 299 304 307 311 313 316 321 320 319 320 324 338 336 334 331 333 334 333 334 334 332
311 311 313 313 312 315 314 312 306 300 301 299 296 295 293 292 291 290 290 289 289 290 291 294 293 293 294 295 297 300 306 311 316 317 322 323 323 324 318 335 335 334 333 332 333 332 333 332 333
311 311 316 316 314 310 305 309 305 301 297 297 295 294 293 292 291 291 290 290 289 290 292 293 293 293 294 294 294 296 299 312 315 320 324 323 321 321 317 328 334 334 334 334 333 333 333 332 331
312 314 315 311 312 309 312 305 302 300 298 297 295 294 292 291 291 291 291 290 290 290 291 292 292 291 292 293 293 293 297 306 311 316 320 320 319 321 322 323 327 330 326 331 332 332 332 332 333

GFSSGP_850_thetae_132.txt.gz
Theta_e
317 319 319 320 315 311 314 316 315 317 317 318 319 321 321 325 331 334 334 341 339 343 342 344 340 337 337 337 334 332 331 330 331 334 338 340 341 339 335 334 333 330 328 329 331 330 330 333 334
318 319 319 318 314 316 316 316 315 315 318 319 320 320 324 328 334 335 337 340 342 344 347 346 344 342 339 339 335 333 331 330 331 332 337 340 340 339 337 335 334 332 333 333 334 334 333 333 334
318 319 319 313 312 317 318 318 318 318 320 319 319 323 322 324 334 329 331 342 342 349 349 348 347 343 340 339 336 334 332 331 330 332 336 340 340 340 338 336 334 334 334 333 333 334 334 334 335
317 318 317 314 317 317 320 315 314 318 320 321 324 322 319 320 319 320 323 328 339 344 348 347 347 342 341 340 337 334 332 332 330 331 334 337 339 339 338 337 335 335 334 334 334 333 332 334 334
316 316 312 315 316 318 315 315 317 316 318 318 324 322 320 316 318 321 322 322 324 326 338 346 346 348 344 341 338 335 333 333 331 331 334 335 337 337 338 337 336 336 335 334 334 332 332 333 333
314 313 310 312 313 314 315 315 314 316 314 315 319 322 316 311 314 314 316 319 321 320 318 326 338 343 346 346 339 336 334 333 332 331 332 334 335 336 338 338 337 336 335 334 333 332 332 334 334
311 307 310 312 312 313 312 315 313 313 311 312 314 318 312 310 310 311 312 313 314 319 315 316 321 325 336 343 343 338 335 334 333 332 332 332 333 335 337 338 337 336 334 334 333 332 332 334 334
310 305 309 309 310 311 311 313 311 311 311 312 311 311 313 310 310 310 310 311 311 312 311 311 328 328 329 338 342 340 337 335 334 333 332 332 333 334 336 338 337 337 334 333 332 332 332 334 334
310 304 306 309 310 309 310 310 310 310 310 310 310 310 310 310 310 309 309 310 310 310 310 311 313 332 340 337 338 341 338 336 335 334 333 332 333 334 336 338 337 337 334 332 331 332 332 333 333
307 302 306 307 309 309 310 309 309 309 309 309 310 310 310 310 310 309 309 309 309 309 309 310 310 310 316 336 339 340 340 337 336 334 333 333 332 333 334 336 337 336 334 332 332 332 332 332 332
306 304 305 308 310 310 309 309 310 308 307 310 310 310 310 310 309 309 310 310 309 309 309 310 310 310 310 310 331 339 339 341 338 336 334 333 333 333 334 336 336 336 334 332 331 332 332 332 331
307 308 308 309 310 309 308 310 309 309 310 311 310 310 309 309 309 310 310 310 310 309 309 309 309 309 309 309 310 319 338 338 342 340 335 333 332 333 333 335 335 335 334 332 331 331 331 332 329
307 308 310 310 310 310 309 309 308 309 311 310 310 309 309 309 310 310 310 311 311 310 310 309 309 309 309 309 309 310 311 334 338 339 342 338 333 331 332 334 334 333 333 332 331 331 331 332 328
308 308 308 309 310 309 308 308 309 310 311 310 309 310 310 311 310 310 310 310 310 310 310 311 310 310 310 310 310 310 311 314 332 335 339 342 337 332 332 333 333 332 333 332 332 331 331 331 328
308 307 306 308 309 308 309 307 307 311 310 311 309 307 307 307 308 307 307 307 307 307 307 307 309 311 311 310 311 311 310 310 315 328 335 339 337 334 332 333 333 332 333 335 334 332 332 332 329
307 307 307 308 308 309 309 306 307 311 310 307 306 306 306 306 305 304 304 305 304 305 306 306 306 307 308 310 310 311 311 310 309 310 322 335 340 337 334 334 334 333 335 336 336 335 332 332 330
306 307 307 308 308 309 307 307 309 309 308 305 304 305 305 306 305 304 303 304 305 305 304 304 304 304 305 306 308 310 311 312 310 310 316 328 337 339 337 334 334 336 337 337 335 335 334 333 332
308 308 307 306 306 307 308 307 306 306 305 303 303 303 303 302 301 302 302 303 303 303 302 302 302 300 301 303 305 307 309 311 312 311 310 326 331 337 336 336 334 336 338 339 335 335 334 334 333
308 308 307 305 307 309 308 308 304 304 303 302 301 300 299 299 298 299 300 300 301 300 300 299 299 300 298 300 302 304 307 310 311 310 310 314 329 333 337 336 336 335 338 337 335 336 334 334 333
308 307 307 307 309 310 308 307 305 304 303 301 300 299 298 297 297 297 297 298 297 296 296 297 297 296 296 297 299 301 303 308 309 311 309 312 321 330 333 336 335 336 337 337 335 336 335 335 333
309 308 307 308 310 309 309 308 308 305 303 302 299 298 296 295 295 296 295 295 295 295 296 296 295 294 295 297 297 300 301 304 309 310 311 315 322 322 331 335 335 334 335 337 336 336 334 334 333
310 309 309 311 310 310 309 308 309 307 304 301 299 297 295 295 294 294 293 294 295 294 294 293 293 294 294 295 296 297 299 301 306 310 312 313 320 324 326 331 335 335 333 337 335 336 335 333 331
309 311 311 311 310 309 310 309 310 309 307 301 298 296 295 294 294 294 294 293 293 293 292 292 293 294 294 295 295 297 298 300 302 306 310 312 313 317 324 326 333 335 334 334 336 337 337 334 332
310 311 310 311 310 310 311 311 309 305 302 301 297 296 294 293 293 294 294 292 292 292 291 292 293 294 294 294 295 297 299 300 302 304 307 311 311 311 313 321 326 333 334 334 336 335 336 335 334
310 309 310 311 311 314 313 311 306 302 299 298 297 295 294 293 293 293 292 291 291 290 291 291 292 293 293 293 296 297 298 301 304 305 307 308 310 311 309 311 320 327 332 334 335 336 336 335 335
310 310 311 314 311 312 312 312 305 301 299 298 296 295 294 292 292 292 291 291 290 290 291 291 292 292 293 294 295 297 299 302 303 306 308 308 308 308 313 314 313 323 321 334 333 336 335 335 334
311 311 311 312 312 310 311 308 304 301 299 297 296 295 294 292 291 292 292 291 290 290 290 291 291 292 292 293 295 296 298 302 306 308 313 313 311 311 320 318 315 316 320 333 334 332 335 334 332
310 310 310 309 310 316 313 312 306 302 299 297 296 294 293 292 292 292 291 291 291 291 290 292 292 291 291 292 293 295 297 301 304 307 310 316 317 320 320 316 318 322 331 328 334 334 331 329 331
310 310 313 314 313 315 310 309 305 301 294 295 296 294 292 291 291 292 291 291 291 291 292 292 292 292 291 291 292 292 293 298 301 305 312 314 317 320 321 321 321 321 323 329 333 333 331 331 330
310 311 313 313 315 310 307 306 300 298 297 297 295 294 292 290 290 291 290 290 291 291 293 293 292 292 291 291 291 291 291 293 296 302 305 313 317 318 318 319 318 319 323 322 332 331 330 330 331

GFSSGP_850_thetae_135.txt.gz
Theta_e
317 318 319 319 315 310 314 316 314 315 314 317 327 330 329 330 330 335 336 342 344 344 344 343 340 338 337 337 336 334 332 333 333 336 338 339 339 337 334 334 332 329 327 325 325 325 329 333 334
318 319 319 318 313 314 314 314 316 316 316 324 322 325 329 330 334 330 338 346 347 348 347 345 345 344 341 338 337 334 332 331 333 335 338 339 339 337 336 334 333 330 329 330 331 330 331 332 332
317 319 318 311 310 314 317 316 313 316 319 319 321 321 322 325 321 322 335 343 345 347 347 346 345 342 342 340 339 334 333 332 333 335 338 339 339 337 336 335 334 333 333 333 334 333 333 333 334
317 318 316 313 318 317 316 312 312 315 320 322 321 318 316 318 316 315 319 325 325 333 342 345 343 346 341 341 340 336 333 333 334 335 337 339 339 337 336 335 334 334 333 333 333 334 334 334 334
316 315 311 313 316 316 313 312 313 310 315 321 322 319 314 311 311 311 313 328 324 319 320 329 333 337 343 345 341 339 335 333 333 334 336 338 338 338 336 335 334 334 334 333 333 333 332 333 333
314 311 310 312 313 312 312 312 312 311 311 312 320 315 310 310 310 310 311 311 316 318 312 318 328 331 336 338 344 341 337 334 333 333 335 337 337 338 337 336 335 334 335 333 333 333 332 333 333
309 306 309 311 311 312 310 313 310 312 310 310 315 317 310 310 309 310 310 310 310 310 311 313 331 339 339 340 342 343 340 336 334 333 332 334 336 337 338 337 336 335 335 334 333 332 332 333 333
310 304 309 307 308 310 309 311 310 310 310 310 310 309 311 310 309 309 309 310 310 310 310 311 320 326 336 341 344 344 341 338 335 334 332 332 332 335 338 337 336 336 336 334 333 332 332 334 334
309 303 305 307 308 308 309 309 310 310 310 310 309 310 310 309 309 309 309 309 309 309 310 310 310 311 315 319 331 340 341 339 336 335 334 332 332 332 335 337 337 336 336 334 332 331 332 333 334
305 301 304 306 308 308 309 309 309 309 308 309 310 310 309 309 309 309 309 309 309 309 309 309 309 309 309 310 312 326 336 341 338 337 335 334 333 332 332 336 337 337 336 334 332 331 332 332 333
305 303 304 306 308 309 308 308 309 308 307 309 309 308 308 309 309 309 309 309 310 309 309 309 309 309 309 309 309 309 315 333 339 339 338 335 334 333 333 334 337 337 336 335 332 331 332 332 332
306 307 306 307 309 308 307 308 308 308 310 308 308 308 309 309 309 309 309 309 309 309 309 309 309 309 308 309 309 309 309 310 314 328 337 338 335 334 333 333 335 337 336 335 332 331 331 332 332
305 306 308 308 309 309 309 308 308 309 309 307 308 309 309 308 307 308 307 307 308 309 309 310 309 310 310 309 309 309 309 309 310 312 328 336 338 335 334 333 334 336 336 335 333 331 330 331 331
306 306 306 308 308 308 308 307 309 309 308 309 309 308 307 306 305 306 306 306 306 307 308 309 309 309 309 310 310 310 309 309 309 310 313 326 334 339 336 333 333 335 336 334 333 331 331 331 331
307 305 305 306 307 307 309 308 307 307 309 308 306 306 305 304 305 305 304 304 304 305 306 307 308 309 309 309 309 309 310 310 309 309 310 311 319 333 338 337 333 333 335 334 334 332 332 331 331
306 306 305 306 306 306 308 307 304 308 309 305 304 304 304 303 302 303 303 303 304 304 305 305 306 307 307 307 307 308 308 309 310 310 310 310 312 316 331 338 336 333 335 334 334 333 332 332 331
303 305 307 307 306 307 307 307 304 306 306 303 302 302 302 302 302 302 302 302 302 303 303 304 304 304 305 305 306 306 306 306 307 309 310 310 310 310 320 334 336 334 332 334 335 335 334 332 331
307 307 306 305 305 306 308 306 304 303 304 301 301 300 300 300 300 300 301 301 301 302 302 302 303 303 303 303 303 304 304 305 305 306 310 312 310 310 318 328 336 336 332 331 333 335 335 335 332
306 307 306 304 304 307 307 306 303 302 301 300 299 298 298 299 299 299 300 300 301 301 301 301 301 301 300 300 301 301 301 302 304 304 306 311 312 312 316 327 331 336 334 330 333 334 334 335 333
306 307 307 305 306 308 307 307 303 303 301 299 298 297 297 298 299 298 299 299 299 299 299 298 298 298 297 296 296 297 298 299 301 303 304 308 311 313 317 327 328 335 335 333 332 332 335 335 334
308 308 306 307 308 308 309 306 305 303 301 300 298 296 295 295 295 296 297 297 297 297 296 296 296 296 295 295 295 296 297 297 298 301 303 305 308 311 318 321 323 327 335 334 333 332 334 334 333
308 308 308 308 309 309 308 308 307 304 302 300 297 296 295 295 295 295 295 296 295 294 295 295 295 294 294 294 294 293 293 295 296 298 301 303 307 310 315 321 323 323 330 335 333 333 333 333 332
309 310 310 310 309 309 308 305 306 305 306 301 297 296 295 295 295 295 295 294 295 295 294 293 293 293 292 292 291 292 293 294 296 298 299 302 305 309 311 316 320 325 324 333 333 333 332 333 332
309 310 309 309 308 309 309 308 307 306 302 300 297 295 295 294 295 295 294 294 295 295 293 292 293 292 291 291 291 292 294 294 296 297 300 301 304 307 310 311 312 314 323 322 325 332 331 332 332
309 308 309 310 310 312 310 309 307 302 299 298 296 295 294 293 294 294 293 295 295 294 293 292 292 291 291 292 291 293 294 295 296 298 300 302 306 307 308 309 310 310 311 322 324 329 332 331 332
308 309 310 314 310 310 310 312 307 301 298 297 296 295 294 294 294 293 293 293 293 291 292 291 291 290 291 291 292 292 292 293 296 298 301 303 305 308 307 309 310 310 310 310 320 325 331 331 330
309 310 310 312 310 309 309 307 302 300 299 297 296 295 293 292 293 292 292 291 293 291 290 291 291 291 290 290 290 291 292 294 296 299 302 305 308 311 311 315 313 310 310 312 311 322 322 332 330
310 309 313 311 313 314 311 309 306 304 301 296 293 294 292 291 292 291 291 292 292 290 291 292 291 291 290 290 290 290 290 293 297 299 300 305 309 310 312 315 317 315 311 319 317 317 321 331 331
309 310 311 311 310 310 306 308 303 301 295 293 295 294 292 291 291 290 290 291 291 290 291 292 293 293 291 290 289 289 290 291 294 297 297 301 310 312 313 314 317 317 315 320 320 321 322 322 330
309 311 312 314 314 310 305 307 301 298 296 296 295 293 292 291 290 290 289 290 292 290 289 291 292 293 292 291 291 289 289 290 292 293 295 295 302 312 313 314 317 318 319 325 326 324 320 322 330

GFSSGP_850_thetae_138.txt.gz
Theta_e
317 318 319 319 314 309 313 316 312 314 319 327 331 330 329 330 331 333 339 346 345 344 342 340 339 338 337 337 336 335 334 335 336 338 338 338 336 334 332 332 331 330 329 329 326 327 328 331 332
318 319 319 317 311 311 313 314 314 314 316 321 323 326 329 325 331 333 344 347 347 346 344 344 344 343 342 338 338 335 333 333 335 338 338 337 336 334 332 332 332 330 328 326 326 325 328 331 332
318 319 318 309 309 313 315 313 311 313 318 316 321 319 320 320 317 322 332 340 346 346 346 345 344 343 341 340 339 336 334 333 334 337 338 337 337 335 333 333 333 331 330 330 331 331 331 332 332
318 318 315 312 317 316 313 311 310 310 319 321 320 317 311 313 312 314 331 328 333 340 342 344 343 344 345 343 341 340 335 334 335 336 338 338 337 336 335 333 333 332 332 332 332 333 332 333 334
316 315 310 312 314 314 312 310 310 308 313 318 320 315 310 309 310 310 312 326 327 321 321 336 341 341 341 341 344 341 338 335 334 336 337 338 338 337 335 334 333 332 333 332 332 332 333 333 333
314 311 308 311 312 311 310 311 311 310 310 311 315 310 309 309 309 309 310 310 311 311 312 325 338 342 340 342 343 343 341 337 335 335 336 338 338 337 336 335 334 333 333 333 332 332 332 332 333
308 305 308 308 311 310 310 312 309 310 309 309 315 313 310 309 308 309 309 310 310 311 313 325 334 335 337 338 342 342 343 340 336 334 334 335 337 337 337 336 335 334 333 334 333 333 332 331 332
309 303 307 308 309 310 309 310 310 310 309 310 310 308 309 309 308 309 309 309 309 309 310 310 311 313 317 323 333 338 340 340 338 336 334 333 334 336 337 337 336 335 334 334 333 332 331 331 332
308 303 304 307 306 308 309 309 310 309 309 309 309 309 308 309 309 309 309 309 309 309 309 309 309 309 309 309 310 318 334 338 340 337 336 334 333 332 334 336 336 336 335 335 334 332 331 330 332
304 301 305 305 307 307 308 308 309 309 308 308 308 308 308 308 308 309 309 309 309 309 309 309 308 308 308 308 309 309 309 317 332 339 338 336 334 333 331 333 336 336 336 335 335 333 332 331 331
304 303 304 306 307 307 307 307 308 307 307 307 307 308 308 308 309 309 309 309 308 308 308 308 308 309 309 309 308 308 308 309 309 319 330 337 337 336 334 331 334 335 336 336 336 333 332 331 331
306 305 305 307 308 308 307 308 307 306 305 307 307 307 307 307 307 307 307 307 307 307 308 308 308 309 309 309 310 310 309 309 308 309 309 314 325 337 336 334 333 333 335 336 336 334 332 330 331
304 305 307 307 307 307 308 307 307 306 307 307 307 306 306 305 305 304 304 305 306 307 307 307 308 308 309 310 310 310 310 310 310 309 309 309 311 326 336 336 335 332 334 336 336 335 332 330 331
305 305 305 307 306 307 306 307 307 306 306 306 306 305 304 304 303 304 305 305 306 306 307 307 308 309 309 309 310 310 310 310 310 310 310 309 309 311 324 334 337 334 332 334 336 335 333 331 330
306 305 304 305 305 305 306 305 304 306 305 305 303 303 303 302 303 303 302 302 303 304 305 307 308 308 308 309 310 310 309 309 309 309 309 309 309 310 312 319 327 336 335 332 334 335 335 332 331
305 304 305 304 305 306 307 306 304 305 304 302 302 302 302 301 301 302 302 303 303 304 305 305 306 307 307 307 307 307 307 308 308 308 308 308 309 310 311 313 320 326 337 335 333 335 335 334 332
302 305 307 306 305 306 307 306 304 304 303 301 301 301 301 301 302 302 301 301 302 303 303 304 305 305 305 305 305 306 306 306 306 307 307 307 306 308 311 312 314 320 330 337 334 332 334 334 333
306 306 306 306 306 304 305 305 303 302 302 300 300 300 300 300 299 300 300 301 301 302 302 303 303 303 303 303 303 304 304 304 304 304 305 304 305 306 311 313 317 328 329 335 336 332 333 333 332
306 306 305 304 305 305 305 305 303 301 300 299 298 298 298 298 298 299 299 300 301 302 302 301 301 300 300 300 299 299 300 301 301 302 303 303 303 304 308 313 316 328 323 326 334 334 334 334 332
306 306 306 305 305 305 305 305 302 302 300 298 297 297 297 297 298 298 299 300 300 300 300 301 300 299 298 297 296 296 296 296 296 296 301 301 302 303 304 308 313 322 327 324 332 337 337 333 333
306 307 307 307 307 307 307 306 303 301 300 299 297 296 296 295 296 297 298 299 300 300 300 299 298 297 296 295 295 295 296 295 294 294 296 299 301 302 303 306 309 318 324 327 320 333 334 336 334
307 307 307 307 308 307 307 307 305 302 301 299 297 296 295 295 295 296 297 299 299 299 298 297 296 295 294 293 292 290 290 292 293 293 295 297 299 301 302 304 307 313 320 325 325 327 329 334 333
307 308 308 308 308 307 308 305 305 303 303 301 297 295 295 295 295 296 295 296 298 298 296 295 293 294 294 292 291 291 291 292 293 295 296 297 298 299 302 303 307 310 313 324 319 325 325 331 331
307 308 308 307 306 308 308 307 306 305 305 301 297 295 295 295 296 295 295 296 296 297 296 293 294 294 292 291 290 289 290 291 292 295 297 298 298 300 302 304 305 309 312 315 322 318 320 326 331
307 307 308 309 309 310 308 307 306 302 299 298 296 295 294 294 294 295 294 294 295 295 293 295 293 293 292 291 289 290 290 289 291 293 295 298 300 300 302 306 307 307 311 311 316 320 321 322 325
307 307 308 312 309 308 309 310 306 301 298 297 296 295 293 293 293 292 293 294 293 291 294 296 294 293 292 290 289 288 289 289 290 293 295 297 298 302 303 305 307 308 310 310 310 312 321 321 321
308 308 308 311 309 306 306 308 301 299 299 297 296 295 293 291 291 291 292 293 293 290 293 293 293 293 291 290 289 287 289 289 290 294 294 296 300 305 307 308 309 310 312 310 309 309 310 316 320
308 307 307 307 314 316 311 307 306 302 301 295 293 294 293 291 291 290 291 292 291 290 291 291 291 293 292 291 288 287 287 289 291 293 295 296 300 305 307 310 311 315 315 309 309 310 311 313 323
307 308 310 310 312 311 306 303 303 300 297 294 293 293 292 290 290 289 290 290 290 290 289 289 290 291 294 292 290 288 288 288 290 290 291 293 297 303 303 308 311 312 318 315 311 313 314 313 318
307 310 310 308 312 311 307 306 300 299 297 296 295 293 292 290 289 289 289 289 289 289 289 287 287 289 291 293 292 290 290 289 289 290 290 293 294 296 298 301 310 311 313 315 316 317 316 318 319

GFSSGP_850_thetae_141.txt.gz
Theta_e
317 318 319 319 321 318 319 318 315 318 331 330 330 331 331 331 334 339 344 345 344 342 340 339 339 338 338 338 337 337 337 337 337 337 336 336 334 333 333 332 331 329 329 329 330 328 329 331 334
318 318 319 318 320 320 320 315 315 316 318 321 325 326 325 321 326 329 339 346 345 345 345 344 343 341 340 339 338 336 335 335 337 337 337 336 334 333 332 332 331 330 329 328 326 325 326 329 332
317 318 319 318 317 320 318 313 313 315 317 317 320 316 317 317 312 316 337 343 346 345 343 340 341 343 340 340 339 337 336 335 335 337 338 336 335 333 332 332 333 331 329 328 328 327 327 330 332
317 318 315 318 317 316 314 313 310 314 318 320 316 313 311 310 310 314 335 326 331 335 340 338 338 342 343 343 341 340 337 336 336 337 338 337 335 335 333 332 332 331 331 331 331 331 332 332 332
316 315 318 319 318 316 313 311 311 314 316 316 316 311 310 308 309 309 313 320 320 314 325 333 335 338 340 341 343 342 339 337 336 337 338 338 337 335 334 333 332 331 332 331 331 331 332 332 332
314 312 317 320 316 313 312 311 311 311 312 311 311 310 308 308 309 309 310 310 312 314 317 327 333 334 333 337 341 342 342 339 336 335 337 337 338 337 335 334 333 333 332 332 331 331 332 332 331
312 313 314 314 314 311 311 311 310 310 310 312 313 312 308 308 308 309 309 309 310 310 313 318 321 321 322 327 336 338 340 340 338 336 335 335 336 337 337 335 334 334 333 333 333 332 332 332 331
309 311 311 311 313 311 309 310 309 309 310 309 309 311 309 307 308 308 309 309 309 309 309 309 309 309 309 309 310 318 332 336 339 338 336 334 334 335 335 336 336 334 334 333 334 333 332 332 331
308 310 311 310 310 310 309 310 309 309 309 308 308 308 307 308 308 308 308 309 309 309 309 308 308 308 308 308 308 309 309 314 324 335 337 336 335 334 333 334 335 336 335 334 334 334 333 332 331
307 309 308 307 308 308 308 308 308 309 308 307 308 307 307 308 308 308 308 309 308 309 308 308 308 308 308 308 308 308 308 308 309 310 317 331 336 336 334 333 333 334 335 334 334 334 333 333 331
305 309 306 306 306 307 307 307 308 308 309 305 308 307 307 308 308 308 307 307 308 308 308 308 308 308 309 309 309 309 309 309 309 308 309 309 311 328 336 336 333 333 333 334 334 334 334 333 332
308 305 305 307 307 307 308 307 307 306 306 306 307 306 306 307 307 306 306 307 307 307 307 307 308 308 308 308 309 309 310 310 310 311 310 309 309 309 313 326 336 334 333 335 335 335 334 334 332
306 306 306 307 306 305 306 308 307 306 304 305 304 304 304 304 304 304 305 305 306 307 307 308 308 309 309 309 309 310 310 310 310 310 311 310 310 309 309 315 327 335 335 333 336 335 335 335 333
305 305 305 306 306 305 307 305 307 305 303 303 303 303 303 303 303 303 304 305 305 306 307 307 308 308 309 309 310 310 310 310 310 311 310 310 310 310 310 309 319 322 329 336 334 335 334 334 334
305 307 307 306 306 306 305 307 307 304 303 303 302 301 302 301 302 303 303 303 303 304 305 306 306 306 306 307 307 307 308 308 308 308 309 309 309 309 309 309 310 314 320 323 336 335 335 335 334
306 306 309 308 307 306 307 309 306 304 303 301 300 301 301 301 301 301 301 302 302 303 304 304 304 304 305 306 306 306 306 306 306 307 307 307 307 308 308 308 309 311 319 327 330 335 336 335 333
307 309 309 310 307 308 309 309 305 303 303 301 300 300 300 301 301 301 301 302 303 303 304 304 304 305 305 305 305 305 305 305 305 306 306 306 306 306 307 307 307 309 312 323 328 329 336 336 334
308 308 308 309 309 309 309 308 305 302 302 300 299 298 299 299 299 300 301 302 302 303 303 303 303 303 304 304 304 304 304 304 303 304 304 304 304 304 305 306 305 307 312 320 331 331 331 334 334
307 308 308 308 308 307 309 307 305 302 301 300 299 298 298 298 299 300 300 301 302 302 302 302 302 302 302 301 301 302 301 302 302 302 302 302 302 303 303 304 304 305 310 320 326 331 328 332 335
308 308 309 308 308 307 308 308 305 303 302 300 299 298 297 298 299 300 300 301 301 301 301 301 301 301 299 297 296 295 294 295 295 296 296 298 300 300 301 302 303 303 306 312 325 325 330 329 328
308 308 309 309 308 308 309 310 307 303 300 299 298 297 297 297 297 298 298 297 298 299 300 301 300 299 298 296 295 293 293 292 292 293 295 296 297 297 299 300 302 302 308 310 319 321 322 322 327
307 308 309 308 309 311 308 312 309 305 303 301 298 297 296 295 296 296 296 296 297 298 299 300 300 300 299 297 295 290 290 290 291 293 295 296 298 298 298 299 301 301 305 308 316 319 323 321 318
308 308 308 309 309 310 310 312 309 305 306 303 300 297 295 294 295 295 295 295 295 297 298 299 299 300 298 296 290 289 289 289 290 291 293 297 300 300 299 300 300 301 302 306 314 322 326 325 323
307 308 309 309 310 312 311 311 311 310 309 305 299 296 294 294 294 295 295 295 294 295 296 297 298 298 298 294 290 288 288 289 289 290 291 294 296 298 301 300 301 303 304 305 314 320 325 324 323
308 309 312 312 313 312 309 310 311 307 304 303 299 296 293 293 293 293 294 294 293 294 294 296 296 298 297 295 292 288 288 288 288 289 291 291 294 297 301 301 302 302 305 306 313 317 323 323 321
308 309 310 313 312 312 310 312 314 304 300 298 297 295 293 293 292 292 292 292 292 292 293 294 294 296 297 295 294 290 287 287 287 289 290 292 294 296 299 303 305 304 306 308 311 311 316 321 319
308 310 309 311 311 312 312 311 305 301 300 298 297 295 293 291 291 291 291 291 290 290 291 292 293 294 296 296 294 292 289 287 287 289 290 291 293 296 299 303 307 307 307 308 310 311 312 317 317
308 308 310 312 313 313 313 313 317 305 304 301 296 295 292 291 291 291 291 290 289 288 288 289 289 292 295 295 293 292 290 288 288 289 289 291 294 296 299 303 306 308 309 310 312 314 311 317 311
308 309 311 311 312 314 313 314 306 306 303 302 296 294 292 291 291 290 290 289 288 288 288 287 288 289 292 294 293 292 292 290 289 290 289 289 291 293 297 300 304 305 309 312 314 314 313 316 318
310 310 311 312 312 311 311 313 305 304 302 300 296 294 291 291 290 290 289 289 288 287 287 286 286 286 288 289 291 292 293 292 289 290 291 291 290 292 294 296 300 302 308 310 313 316 316 318 318

GFSSGP_850_thetae_144.txt.gz
Theta_e
317 318 319 320 325 323 324 323 321 325 332 330 329 332 335 336 341 344 341 345 347 346 345 339 339 339 339 338 338 337 337 337 338 336 336 337 338 337 335 334 331 329 329 329 330 331 332 333 334
317 319 319 322 325 324 324 321 323 326 328 327 327 328 328 324 329 333 338 345 344 345 344 343 343 341 340 339 338 337 336 336 337 337 336 336 337 337 336 334 332 330 329 329 329 329 328 331 332
318 319 322 325 324 324 323 321 323 323 323 323 324 321 321 319 316 327 336 341 346 345 341 340 342 342 340 340 339 338 336 336 336 337 337 336 336 336 336 334 333 331 329 328 327 326 327 328 330
317 320 320 324 323 321 320 320 320 323 323 322 322 319 313 311 314 322 330 332 334 335 338 336 335 339 341 343 342 340 339 336 337 338 338 336 335 335 334 333 333 333 331 328 328 328 328 329 331
316 319 322 322 322 319 317 316 320 323 322 321 318 316 312 312 312 316 321 323 320 315 323 330 331 332 334 336 340 343 341 339 336 337 338 338 336 335 334 333 333 332 331 330 330 331 331 332 332
318 318 321 323 321 319 317 315 316 319 318 318 317 315 311 312 311 310 311 312 312 314 316 322 327 328 328 329 332 336 341 342 339 336 337 337 337 336 335 334 333 333 331 332 331 331 332 332 332
317 319 320 321 320 317 315 313 314 315 318 317 316 317 311 311 310 309 309 309 309 309 310 312 313 313 313 315 316 321 330 336 339 339 336 335 336 337 337 335 334 333 333 333 332 331 331 332 333
314 318 318 320 319 317 313 313 312 313 313 312 312 317 314 312 308 308 308 308 308 308 308 308 308 309 309 309 309 309 310 318 325 334 338 336 335 335 335 336 335 334 334 334 333 333 332 332 332
310 317 318 317 318 315 312 314 311 311 312 312 312 312 310 308 308 309 309 308 308 308 309 308 308 308 308 308 308 308 308 309 309 310 321 335 337 337 337 338 335 335 334 334 334 333 333 333 333
313 318 315 314 313 314 312 312 312 313 312 312 311 308 308 307 308 308 307 308 308 308 308 309 308 308 308 309 309 309 309 309 308 308 309 309 315 331 336 336 335 333 333 335 334 334 333 333 336
312 315 312 311 311 311 312 312 311 312 313 311 312 309 307 307 307 307 306 307 307 308 308 308 309 309 309 309 309 309 309 310 310 310 310 310 310 309 310 329 337 336 333 332 334 334 334 336 337
313 311 311 311 310 311 312 311 311 312 311 308 308 307 306 306 306 305 305 305 307 307 308 308 308 309 309 310 310 310 310 310 310 310 310 310 310 311 310 309 311 332 337 337 335 332 334 337 338
312 311 310 310 309 309 309 310 312 309 307 306 305 306 305 305 305 304 304 305 306 307 307 308 308 309 309 310 310 310 310 310 311 311 311 311 311 311 311 311 310 310 325 335 337 336 334 335 337
310 310 310 310 310 310 310 311 311 308 306 306 306 306 305 304 303 304 304 304 306 306 307 307 307 307 307 307 308 308 308 308 308 308 308 309 309 310 310 311 311 310 310 319 334 336 334 334 334
309 312 311 311 311 311 310 311 312 308 307 307 306 305 304 303 303 302 302 302 303 303 304 305 306 306 306 306 306 306 306 307 307 307 307 307 307 308 308 309 310 310 310 325 326 329 334 334 334
312 312 314 313 311 309 310 315 311 308 307 308 306 305 304 303 302 301 300 300 301 302 304 304 305 305 305 305 305 305 304 305 305 305 306 306 306 307 308 307 308 309 309 311 325 327 329 333 337
313 316 315 314 312 312 313 314 311 309 308 308 306 305 303 303 302 300 300 300 300 301 303 304 304 303 303 303 302 301 301 301 301 302 302 302 304 305 306 306 306 307 308 309 314 321 326 329 334
316 315 315 315 314 313 314 314 312 308 308 307 306 304 304 303 302 300 300 299 300 301 303 303 303 302 302 299 299 298 298 298 298 299 299 300 300 300 300 302 304 305 307 308 311 316 326 328 332
312 313 314 314 314 313 314 314 312 308 307 307 307 305 305 303 301 300 299 299 299 299 300 299 299 300 300 299 300 299 298 297 296 296 296 296 297 298 297 298 301 303 305 308 308 312 321 328 329
312 313 314 313 312 312 313 314 312 310 309 308 307 305 304 303 302 300 299 298 298 298 298 298 298 299 299 299 297 295 294 294 294 294 294 295 296 297 297 298 298 299 301 304 310 311 318 324 331
313 312 312 313 312 313 313 314 313 310 308 305 304 303 302 301 301 300 299 298 297 297 297 297 297 298 297 296 295 294 293 293 293 292 292 293 295 295 297 298 299 299 299 302 306 312 316 322 326
311 311 311 311 312 314 313 312 314 313 310 307 305 304 303 301 300 299 298 297 296 296 296 296 297 296 295 294 294 292 292 291 291 290 291 292 295 295 296 299 300 300 301 300 302 308 313 321 324
312 311 311 312 313 314 314 314 315 313 313 311 307 304 302 300 299 298 297 296 295 295 295 295 295 295 295 294 293 292 291 290 290 290 290 290 292 295 297 298 299 300 301 301 303 304 312 317 322
310 312 313 313 314 314 314 314 313 314 314 312 307 303 300 299 298 297 296 295 294 294 294 294 294 295 295 294 293 291 291 289 289 288 289 289 291 295 297 299 300 302 301 302 303 304 308 313 318
312 313 314 314 317 315 313 313 314 314 311 311 306 303 300 298 297 296 295 294 293 293 293 294 293 294 295 295 294 292 289 288 288 288 288 288 290 293 296 298 301 303 303 303 303 305 309 315 320
311 311 312 312 314 314 312 312 316 310 306 305 303 299 298 297 296 294 293 292 292 291 291 292 292 293 294 295 295 291 289 288 287 287 287 288 290 293 295 297 300 303 306 305 305 307 310 316 319
310 311 312 312 312 313 313 312 311 307 306 304 303 301 298 297 295 293 291 291 290 289 289 289 290 291 293 296 295 294 290 288 287 286 287 287 288 291 292 296 299 302 306 306 306 308 311 316 318
309 309 309 312 313 310 310 313 317 313 311 307 301 301 297 295 294 292 290 290 289 288 288 288 287 289 290 291 295 294 294 289 289 289 287 286 287 290 292 295 297 301 306 307 307 309 313 316 319
310 309 310 311 311 313 315 314 315 314 308 307 303 298 295 293 292 291 290 290 288 287 287 286 286 287 287 287 289 293 294 292 290 291 288 287 288 287 290 292 295 299 304 307 309 310 311 314 316
309 309 311 312 312 314 315 317 312 312 310 308 303 297 295 293 291 290 290 289 288 287 286 285 286 286 286 286 286 287 292 293 291 292 291 290 289 287 287 289 292 296 297 303 309 311 310 313 314

GFSSGP_850_thetae_147.txt.gz
Theta_e
317 321 322 323 326 325 327 326 325 326 331 332 331 335 338 339 342 351 343 344 345 345 343 339 339 339 339 338 338 337 337 337 338 337 336 337 338 338 336 335 334 332 331 333 333 333 334 334 333
317 320 322 325 326 327 327 325 324 332 330 331 331 331 330 328 339 339 340 339 338 343 344 343 342 341 341 340 339 338 337 335 335 337 336 336 337 338 337 336 335 333 331 331 331 331 333 333 333
317 320 323 327 328 328 327 324 326 327 326 327 326 326 324 323 330 331 328 328 330 330 341 339 340 342 342 341 340 339 338 336 335 335 337 336 336 337 337 336 335 334 331 330 330 330 331 331 331
318 322 322 326 327 325 325 325 325 326 325 325 324 320 317 318 323 323 321 321 323 330 334 337 335 335 334 335 341 342 341 340 337 336 336 337 336 336 336 336 335 334 333 331 330 329 328 328 329
317 321 326 326 325 323 321 322 323 326 325 324 323 320 317 316 317 318 317 319 317 317 323 326 328 327 325 325 327 332 339 342 341 338 337 337 337 336 335 335 335 334 333 333 330 329 329 329 330
320 320 324 326 325 322 320 320 323 324 324 322 320 318 316 315 314 314 312 312 312 313 314 315 317 319 321 321 320 323 328 336 339 340 338 336 337 337 336 335 334 334 333 333 331 330 331 332 332
319 323 324 325 325 322 320 318 320 321 322 321 320 321 317 315 313 313 310 309 309 309 309 309 309 309 309 309 310 310 311 315 324 331 337 338 336 336 337 336 335 334 333 332 332 332 332 332 332
316 321 323 325 324 321 317 317 316 317 318 317 317 320 318 316 313 313 313 310 308 308 309 309 309 308 308 308 308 308 308 309 309 310 318 335 338 335 335 336 336 336 335 333 332 333 333 332 332
315 321 323 323 323 320 316 318 315 314 315 315 315 317 315 313 312 313 313 313 312 309 308 309 309 309 309 309 309 309 309 308 308 308 309 309 320 334 337 337 337 336 336 335 334 333 334 333 333
318 322 321 318 318 319 316 316 316 315 315 315 314 312 312 312 312 312 312 312 311 310 308 309 309 309 309 309 309 309 309 309 309 309 309 309 309 309 310 319 333 335 335 334 335 334 334 334 335
318 319 317 316 315 314 316 315 315 316 317 316 316 313 312 312 311 311 311 310 310 309 308 308 309 309 309 310 310 310 310 310 310 310 310 310 310 310 310 311 311 312 334 335 336 334 334 334 334
317 315 315 315 313 314 316 316 315 315 315 314 313 312 311 311 310 310 309 309 309 308 308 308 309 309 310 310 310 310 310 310 310 311 311 311 311 311 311 311 311 312 319 319 335 337 337 336 334
316 316 314 314 313 313 314 314 315 314 311 311 310 310 310 310 310 309 308 308 308 307 307 308 308 309 309 309 309 308 308 308 309 309 309 309 310 310 310 311 311 311 313 325 325 327 335 336 336
315 314 315 315 314 314 313 314 314 313 310 310 310 310 310 309 308 308 307 307 306 306 306 307 307 307 307 307 307 307 307 307 307 307 307 307 307 307 308 308 310 311 313 317 324 329 329 334 335
314 316 317 315 315 315 313 315 314 312 311 311 310 310 309 308 307 307 306 306 305 305 305 305 305 305 306 306 306 306 306 306 306 306 306 306 306 307 307 307 308 308 310 313 315 324 329 329 333
316 317 318 317 315 313 313 317 316 312 311 311 311 310 309 307 306 305 304 304 304 304 304 304 304 304 305 305 304 304 304 304 304 304 304 304 305 305 305 306 307 309 310 312 314 317 327 330 330
319 319 319 318 316 315 315 317 315 312 312 313 312 310 308 307 306 305 305 304 304 304 304 304 303 303 303 302 303 302 302 302 302 302 302 303 303 303 303 304 306 307 308 310 312 313 318 328 331
320 319 319 318 317 316 316 317 317 314 313 313 312 309 308 308 307 305 304 304 304 304 303 303 303 302 302 302 301 301 301 301 300 300 300 300 300 300 301 301 302 303 305 307 310 312 315 320 327
315 316 316 317 317 316 316 316 317 315 313 313 312 311 310 309 307 305 304 303 303 303 302 302 302 301 301 301 300 300 300 299 299 298 298 297 297 297 297 297 297 298 300 304 307 311 312 313 317
314 315 316 316 316 315 315 316 317 316 314 313 313 312 310 308 307 305 304 303 302 302 301 301 301 300 300 300 299 299 298 298 298 297 296 296 295 295 295 296 297 299 299 302 302 306 310 313 314
315 316 315 314 314 315 315 316 317 316 314 313 311 310 308 307 307 305 304 303 302 301 300 300 300 300 300 299 299 298 298 297 296 294 294 294 293 294 296 296 297 298 299 300 301 302 306 309 315
314 314 313 313 313 314 316 315 315 317 315 313 310 309 309 307 305 304 303 302 301 300 300 299 299 299 299 298 298 296 295 295 293 292 292 292 292 293 294 295 295 297 299 300 301 301 303 305 312
312 313 313 313 314 315 315 316 316 317 316 315 312 310 308 305 304 303 302 301 300 299 298 298 298 298 298 298 296 294 293 293 292 291 291 291 291 291 292 292 295 296 298 301 302 302 302 304 308
312 314 315 315 316 317 316 316 315 317 315 315 313 310 307 305 303 302 301 299 299 297 296 297 296 297 297 297 295 293 292 291 291 290 289 289 290 290 292 293 297 298 299 300 302 303 302 303 306
313 314 315 315 318 318 316 315 314 317 316 315 313 309 307 304 303 302 299 298 297 295 293 294 294 295 295 296 294 293 292 291 292 289 289 288 289 289 290 292 294 298 301 301 302 303 303 304 305
312 312 312 310 314 315 314 313 316 315 312 312 311 307 306 303 302 300 296 297 296 293 291 291 292 292 292 293 293 291 294 292 290 290 288 287 288 288 289 290 292 296 299 302 305 305 305 305 306
311 311 313 314 312 313 313 313 315 313 312 309 308 306 305 304 301 297 294 295 294 291 289 288 289 289 289 290 291 291 295 293 292 290 287 287 287 287 288 290 291 296 299 302 304 306 306 306 308
310 311 311 312 313 312 311 312 319 318 314 312 308 308 305 303 300 297 294 293 293 289 288 287 287 287 288 287 289 289 292 294 292 291 289 287 286 287 287 288 290 293 296 300 302 306 307 308 310
311 312 311 311 311 313 313 315 315 315 312 316 307 304 303 300 297 295 294 292 290 288 287 287 287 287 287 285 287 287 288 291 292 292 290 290 289 287 287 287 288 291 293 295 297 302 307 308 311
310 310 309 311 311 314 316 320 316 313 313 312 311 304 302 299 296 293 292 291 289 287 287 286 286 286 285 284 285 286 286 285 286 287 290 290 290 289 289 288 288 289 289 290 294 293 302 305 311

GFSSGP_850_thetae_150.txt.gz
Theta_e
314 320 323 323 325 326 326 326 326 327 331 332 336 336 342 342 348 351 338 338 339 344 342 339 340 341 341 340 338 337 337 336 336 336 336 336 338 339 339 336 334 333 332 332 333 333 334 335 333
315 319 323 324 326 327 327 326 328 332 332 333 332 331 329 335 338 335 337 333 333 343 343 341 341 340 339 339 339 339 338 337 335 335 336 336 336 337 337 337 336 335 333 330 331 332 331 334 333
316 319 323 327 327 327 327 326 329 329 327 327 327 321 322 323 330 328 327 331 329 337 337 335 334 335 335 335 337 339 340 340 337 335 335 336 336 336 337 337 336 336 334 332 330 331 331 332 332
316 321 322 325 328 325 325 326 326 327 325 327 322 321 320 323 324 323 321 322 324 325 322 326 326 323 320 319 320 321 327 334 340 340 336 335 336 336 336 336 337 336 335 334 332 330 330 330 330
316 320 324 326 326 324 323 323 324 326 325 324 322 320 318 320 320 319 319 318 315 315 315 314 313 313 313 315 317 318 321 324 330 337 340 338 337 337 336 336 336 336 335 334 334 332 330 329 329
317 321 323 325 326 322 321 321 324 326 325 323 320 320 318 316 316 316 312 311 310 310 310 310 310 310 310 309 309 309 310 311 313 318 327 335 339 336 336 336 335 335 334 334 334 333 331 330 330
318 321 324 324 325 323 321 320 322 324 324 321 320 321 318 316 315 315 311 309 309 309 309 309 309 309 308 308 308 308 308 308 308 309 310 315 332 338 336 336 337 336 335 334 333 333 331 331 331
317 319 322 324 325 322 319 318 318 319 319 319 319 321 318 316 315 315 314 311 310 309 309 309 309 309 309 309 309 309 309 309 308 308 308 308 309 321 335 336 334 335 336 336 334 333 331 332 333
317 318 322 323 324 319 318 318 316 316 317 317 317 318 317 315 314 315 315 314 313 311 309 309 309 309 309 309 309 309 309 309 309 309 309 309 308 309 309 315 323 334 335 335 335 335 333 333 333
319 321 320 318 319 319 317 317 317 316 317 316 315 314 314 314 314 314 313 313 312 311 310 309 309 309 309 309 310 310 310 310 310 310 309 309 310 310 310 310 310 310 312 321 334 333 335 334 333
318 319 317 318 315 315 317 316 316 316 317 317 316 314 314 314 313 313 312 311 311 310 309 308 308 309 309 310 310 310 310 310 310 311 311 311 311 310 310 310 310 310 311 313 314 332 334 333 334
317 318 316 316 315 314 316 317 316 317 317 316 316 314 313 313 312 311 311 310 310 309 308 308 309 309 309 310 310 310 310 310 309 309 309 309 310 310 311 311 311 311 311 311 321 322 323 335 336
317 317 316 316 315 315 315 315 316 316 314 313 313 312 312 312 311 310 310 310 309 308 307 308 308 309 309 309 309 309 308 308 308 307 307 307 308 308 308 308 309 310 311 312 316 324 326 325 332
317 316 316 316 316 315 314 314 315 315 313 312 312 312 311 311 310 310 309 308 307 307 307 307 308 308 308 307 307 307 307 307 307 307 306 306 306 307 307 307 308 308 308 310 313 315 320 328 329
316 317 317 318 316 316 315 314 315 314 313 312 312 312 311 310 309 308 307 307 306 306 306 306 306 306 306 306 305 305 305 305 305 305 305 305 305 305 305 306 306 307 307 308 309 311 314 323 329
318 318 318 319 316 314 314 315 315 314 313 313 312 312 311 309 308 307 306 306 306 306 306 306 305 305 304 304 303 303 303 303 303 303 303 303 303 303 304 303 304 305 306 307 308 310 312 314 324
320 320 320 318 316 316 315 316 316 314 313 313 313 312 311 310 308 307 307 306 306 306 305 305 304 303 302 302 302 302 302 302 302 302 301 300 301 300 300 300 300 301 303 305 306 308 310 312 315
321 320 320 320 318 317 317 317 317 314 314 314 314 313 311 310 309 307 306 306 305 305 304 304 303 302 301 302 301 301 301 301 300 300 299 299 298 297 297 297 297 297 299 300 302 305 308 311 313
318 317 316 316 317 317 317 317 317 316 315 315 314 313 312 311 309 307 306 305 305 304 303 302 302 302 301 301 300 300 301 300 300 299 298 298 296 295 295 295 296 295 297 298 300 300 303 308 312
316 315 315 316 317 317 316 316 316 316 316 315 314 314 313 311 309 307 306 305 304 303 302 301 301 301 301 300 300 299 299 299 297 298 298 295 294 293 293 294 294 295 296 297 298 299 300 302 308
315 315 316 316 315 314 314 314 315 316 316 315 314 314 312 310 309 307 306 304 303 302 301 301 300 300 300 299 298 299 299 299 298 297 295 293 292 292 292 293 294 295 296 297 298 299 300 301 302
315 315 315 315 314 313 314 315 315 316 316 315 313 311 310 309 307 306 305 303 302 301 300 300 299 299 299 298 297 297 298 298 296 295 294 291 291 291 291 291 292 293 294 296 297 298 300 301 302
314 314 314 314 312 313 313 315 315 317 316 315 313 311 311 308 307 306 304 302 301 299 298 298 298 298 298 298 296 294 295 296 295 295 292 293 291 290 289 289 292 294 295 295 296 297 298 301 302
313 312 313 315 316 317 317 318 316 317 317 317 314 312 309 307 306 304 303 301 300 298 296 296 296 296 296 296 295 293 295 295 296 293 292 292 290 289 288 289 291 293 294 296 297 298 299 301 303
313 313 315 316 319 318 317 316 316 318 317 317 314 311 309 306 306 304 301 300 299 296 294 294 294 293 292 293 293 292 293 294 293 291 292 294 291 288 288 288 290 292 294 297 298 299 301 304 304
315 314 314 311 314 315 315 313 316 316 314 315 313 310 308 306 304 303 299 299 297 296 292 291 291 290 290 290 291 291 290 292 292 291 292 294 290 287 287 287 289 291 294 296 297 299 301 305 305
310 310 312 313 314 314 312 312 316 314 313 312 311 309 308 306 304 301 298 297 296 294 291 289 289 288 288 288 289 289 289 290 290 291 293 294 291 289 286 288 289 290 294 296 297 299 303 305 306
310 310 311 314 313 312 311 313 320 317 315 313 308 309 308 307 304 301 297 296 295 293 290 288 288 287 287 287 287 287 287 286 286 289 292 293 292 290 288 287 289 289 290 291 293 297 299 302 304
309 310 312 311 312 313 314 317 318 313 313 317 307 308 308 306 303 300 298 294 294 292 289 287 287 286 286 286 286 286 285 284 284 285 286 289 292 291 290 287 288 288 289 290 290 293 294 296 298
310 310 311 314 311 314 317 317 316 314 315 315 313 308 305 305 302 299 297 293 294 290 288 287 286 286 286 286 285 285 284 283 283 284 284 285 285 287 289 290 287 290 290 289 288 288 288 291 292

GFSSGP_850_thetae_153.txt.gz
Theta_e
312 317 321 322 319 317 319 320 327 329 331 338 340 338 339 342 345 346 337 335 342 342 340 340 340 340 339 339 339 339 338 337 336 335 335 336 336 337 338 337 336 334 333 332 331 331 333 332 334
315 319 322 323 319 320 319 325 327 329 331 326 326 328 329 332 336 334 330 329 338 341 340 339 338 337 334 332 331 333 335 337 338 336 335 335 335 335 336 337 337 336 334 333 331 331 331 330 332
315 316 319 318 318 321 320 325 324 325 326 326 319 321 322 325 328 327 327 327 334 335 333 331 328 323 319 317 316 315 317 321 329 337 338 335 335 335 335 336 337 336 336 335 333 332 331 330 330
315 316 319 318 320 321 321 322 324 323 324 322 320 320 321 324 324 322 323 328 325 321 322 319 315 313 312 312 312 312 314 315 319 325 333 338 337 336 336 335 336 336 336 336 334 334 332 331 330
314 316 316 319 320 320 319 322 325 322 320 321 321 318 320 320 321 322 323 316 314 313 312 311 311 310 309 309 309 309 309 309 309 311 316 325 335 338 336 336 336 335 335 335 335 334 334 332 330
314 316 314 314 318 318 318 320 324 322 320 320 318 318 318 317 318 315 311 309 309 309 309 309 309 309 309 309 308 308 308 308 308 308 308 309 315 327 337 336 336 336 335 335 334 334 333 333 331
312 311 313 315 319 318 318 320 321 319 318 319 320 318 316 315 315 313 310 309 309 308 309 309 309 309 309 309 309 309 309 309 309 309 308 308 308 309 325 335 336 335 335 336 335 334 333 333 332
316 310 313 313 317 316 317 318 317 318 317 320 320 318 315 314 315 315 315 314 311 309 309 309 309 309 309 309 309 309 309 309 309 309 309 309 308 308 308 312 328 335 335 334 333 335 335 334 333
317 311 312 314 314 315 316 315 316 317 317 317 318 318 316 315 315 315 313 312 313 311 309 309 308 309 309 309 309 309 310 310 310 310 310 309 309 309 309 309 309 310 311 317 330 334 334 335 334
315 311 314 313 313 314 315 316 316 316 315 314 315 316 315 314 315 314 313 312 311 311 309 308 308 308 309 309 309 310 310 310 310 310 311 311 311 310 310 310 310 310 310 310 311 312 328 334 334
316 314 315 314 314 315 314 315 316 315 316 315 314 314 314 314 313 312 311 310 310 310 309 308 308 309 309 309 310 310 310 310 310 309 309 309 310 310 311 311 311 311 310 310 310 311 314 322 329
315 316 316 315 315 314 313 315 316 317 315 315 314 314 313 313 312 311 310 310 309 309 308 308 308 309 309 309 310 309 309 309 308 308 307 307 308 308 308 308 309 310 311 311 311 311 314 322 326
314 315 316 315 315 315 315 314 316 315 315 314 314 313 312 312 311 310 310 309 308 307 307 307 308 309 309 309 308 308 308 307 306 306 306 306 306 306 307 307 307 308 308 308 309 310 312 316 317
316 315 315 316 315 314 313 313 315 313 313 313 312 312 311 310 310 310 309 308 306 306 307 307 307 308 307 307 306 306 306 305 305 305 304 304 304 304 304 305 306 306 307 307 307 308 309 312 316
317 315 313 315 316 314 314 312 312 313 312 312 312 311 310 309 309 309 307 306 306 306 306 306 306 306 305 305 305 304 304 303 303 303 303 303 303 303 303 303 303 303 304 305 306 307 308 308 310
316 315 314 314 314 312 313 312 312 313 312 312 312 311 310 309 308 308 306 306 306 306 306 305 305 304 303 303 302 301 301 302 302 303 303 303 302 301 301 301 301 300 301 302 304 305 307 307 308
315 315 315 316 312 311 312 312 312 312 312 312 312 311 310 309 308 307 306 306 306 306 305 304 303 303 302 302 301 300 301 302 302 302 302 301 300 300 299 299 298 299 299 300 301 302 303 305 307
316 317 314 313 314 312 311 311 313 313 313 312 312 311 309 308 308 307 307 306 305 305 304 303 302 302 302 301 299 299 301 302 301 301 300 300 300 299 297 296 294 295 295 296 297 298 300 302 304
315 315 314 312 312 314 313 314 311 312 312 312 311 310 310 308 307 307 306 305 304 304 303 302 301 301 301 300 298 298 299 301 301 300 300 299 298 297 294 292 293 294 295 296 297 297 298 299 301
315 313 312 312 313 313 312 313 312 310 312 313 311 311 310 308 307 306 306 305 304 303 302 301 300 300 300 299 297 297 298 300 300 300 299 298 298 297 293 292 292 293 293 294 296 296 297 298 300
314 313 313 313 313 312 311 309 309 311 313 313 312 312 310 309 307 306 305 304 303 302 301 300 299 299 299 298 296 295 295 298 298 299 299 298 297 294 291 290 291 293 294 295 295 296 296 297 299
314 314 314 314 313 312 311 310 311 313 312 311 310 310 309 308 307 305 304 303 302 301 300 299 298 298 297 296 295 293 294 295 296 297 298 298 296 294 289 289 290 292 294 294 295 295 296 297 298
313 313 312 312 310 309 311 310 311 312 313 311 309 309 308 307 306 305 304 302 301 301 299 297 296 296 296 294 293 292 293 293 295 295 297 298 296 290 288 289 289 291 292 293 295 297 297 297 297
312 311 311 311 310 310 313 313 315 315 314 312 310 309 308 307 305 304 303 301 301 300 297 295 295 294 293 292 292 291 290 292 294 293 295 296 293 288 289 290 291 290 291 293 294 296 298 298 299
311 311 312 313 312 313 314 314 318 316 315 312 310 308 307 306 305 303 302 301 301 300 295 293 293 292 290 290 291 290 289 290 290 291 293 294 292 288 290 292 290 290 291 293 295 296 297 299 300
311 313 314 313 313 311 312 312 316 313 313 311 310 308 307 306 305 304 303 300 299 298 294 292 291 289 289 289 289 289 288 288 288 289 291 292 290 288 291 292 290 289 289 291 293 295 297 299 301
310 311 311 312 312 310 311 312 314 312 313 311 310 308 307 306 305 304 301 299 299 297 292 291 289 288 288 288 288 287 288 287 286 287 287 289 291 290 292 292 291 290 290 291 292 293 295 296 299
310 310 310 313 311 313 312 310 314 313 312 310 308 309 307 306 304 303 300 298 298 296 292 289 288 287 287 287 287 286 286 286 286 286 286 285 285 288 292 294 292 289 288 290 291 293 293 294 296
310 310 310 310 309 311 309 308 313 311 310 309 306 309 308 305 305 303 301 297 296 295 291 288 287 287 286 287 286 286 286 285 285 285 284 284 284 284 285 290 292 291 288 289 290 291 292 293 292
309 309 310 312 312 310 310 307 314 310 310 313 311 309 309 307 304 302 300 297 295 293 289 287 288 288 287 288 287 286 286 285 285 284 283 283 283 283 284 284 286 290 289 289 290 290 290 291 290

GFSSGP_850_thetae_156.txt.gz
Theta_e
314 316 321 322 317 314 319 320 323 330 336 338 340 341 341 339 341 342 336 337 339 340 338 339 340 339 338 337 336 336 336 336 336 335 334 334 335 336 337 337 335 334 333 332 331 330 332 332 332
315 315 321 321 316 318 321 323 327 332 334 329 325 328 331 336 334 332 334 331 338 341 341 339 336 331 325 320 318 319 321 324 330 335 336 335 334 335 335 336 337 336 334 334 332 331 331 332 331
314 315 318 315 314 319 322 323 322 330 329 321 321 323 323 327 329 328 329 329 333 338 334 329 323 318 315 314 314 314 315 316 319 324 333 337 336 335 335 335 335 336 336 335 334 333 332 331 331
313 315 318 315 320 319 320 322 323 319 320 321 320 320 321 324 326 327 327 329 332 330 323 317 314 312 311 310 309 309 309 309 310 312 317 324 332 337 336 336 335 335 336 336 335 335 334 333 332
313 314 311 315 317 318 318 321 321 318 319 319 319 319 318 321 325 325 325 325 318 314 313 312 310 309 309 309 309 308 308 308 308 308 308 310 314 323 334 336 336 335 335 335 335 335 335 334 333
313 313 310 312 315 315 317 319 319 319 319 318 318 317 317 320 322 322 318 312 309 309 308 308 308 308 308 308 308 309 309 309 309 309 308 308 308 309 317 331 336 335 335 336 335 335 334 334 333
311 307 310 313 314 317 317 319 317 318 318 318 318 316 317 317 317 312 309 309 308 308 308 308 308 308 309 309 309 309 309 309 309 309 309 309 309 308 308 310 320 331 335 334 334 335 335 335 334
315 307 312 312 311 316 315 315 317 318 317 319 318 315 315 316 314 313 313 312 311 310 308 308 308 308 309 309 309 309 309 310 310 310 310 310 309 309 309 308 308 310 319 327 332 333 333 334 335
315 309 310 313 313 314 314 314 316 317 318 317 317 316 316 315 314 314 312 312 312 311 309 308 308 308 308 309 309 309 309 310 310 310 310 310 310 310 310 309 309 309 309 309 310 313 325 332 334
312 309 313 312 312 312 314 315 315 315 315 315 315 315 315 315 314 312 311 311 311 310 309 308 308 308 309 309 309 309 310 310 310 310 310 310 310 311 311 311 311 310 310 310 309 309 311 313 320
314 311 312 313 314 314 313 314 315 315 315 315 314 315 314 314 312 311 310 310 310 309 308 307 308 308 308 309 309 309 309 309 309 309 308 308 308 309 309 309 310 310 311 311 310 310 310 311 313
314 313 314 313 315 315 313 315 315 316 316 315 315 313 312 311 310 310 310 310 310 308 307 307 308 308 308 308 308 308 307 307 307 307 307 307 307 307 307 307 308 308 308 309 309 310 310 310 311
314 314 315 315 314 314 314 313 314 313 314 313 313 313 312 311 310 310 309 309 308 307 307 307 307 307 306 306 306 306 306 305 305 304 304 304 304 305 305 305 305 306 306 307 307 308 308 309 310
316 314 314 315 315 314 312 313 315 313 313 313 313 312 312 311 310 310 309 308 307 306 307 306 306 305 305 304 305 304 303 303 302 303 303 303 304 304 304 305 305 304 304 305 305 306 307 307 308
317 315 313 314 315 313 313 310 310 313 313 312 311 310 310 310 309 309 308 307 306 306 306 306 305 305 304 304 304 303 302 301 302 303 303 303 304 304 304 304 304 304 304 304 304 304 305 306 307
315 314 314 314 313 314 313 311 312 313 312 311 310 309 309 309 309 308 307 307 306 306 306 305 304 304 304 304 302 301 300 301 302 303 303 303 303 303 303 303 303 303 303 303 302 303 304 304 305
313 314 314 313 311 311 310 311 311 311 311 310 309 309 309 308 308 307 307 307 306 306 305 304 304 304 303 302 300 299 299 300 301 302 302 302 302 302 302 302 301 300 299 299 298 298 298 300 303
315 315 314 313 312 311 310 309 310 310 311 309 309 308 308 308 307 307 307 306 306 305 304 304 304 303 302 301 299 297 298 299 300 300 300 301 301 301 301 300 299 298 296 297 297 296 296 297 299
315 313 312 311 311 312 310 308 310 310 310 308 307 307 308 308 307 307 307 306 305 305 304 304 303 303 302 301 299 297 296 297 298 298 299 300 300 300 299 299 298 296 295 295 295 296 296 297 297
313 313 312 310 311 310 311 311 309 308 310 308 307 307 307 307 306 306 306 306 304 304 303 302 302 301 301 300 297 295 294 295 296 296 297 300 300 299 298 297 296 295 294 295 296 296 296 296 297
314 313 312 311 312 311 309 308 310 309 311 308 308 308 307 307 306 305 305 305 304 303 302 301 300 300 300 298 295 294 293 294 294 295 295 298 299 299 298 295 295 294 293 295 296 296 296 295 296
313 313 313 313 311 310 309 307 309 310 309 308 308 306 306 306 306 305 305 304 303 303 301 300 299 298 298 296 294 293 292 292 293 293 294 296 298 298 296 296 295 292 293 294 295 296 296 296 297
313 311 311 311 310 309 309 309 307 311 310 308 306 306 306 306 306 304 304 304 303 302 301 299 298 297 296 294 292 292 291 291 291 292 292 294 296 297 297 297 293 291 294 293 294 296 296 296 297
312 311 311 310 309 309 310 311 311 315 312 309 307 306 306 305 305 304 304 304 304 301 300 297 296 295 293 292 291 291 290 290 290 290 290 292 294 295 297 296 292 291 292 293 294 295 295 296 296
310 310 311 312 312 311 312 312 314 314 311 310 307 306 305 305 305 305 303 304 301 300 299 295 294 293 291 290 290 290 289 289 289 288 288 290 291 293 294 294 291 291 293 292 292 293 294 295 296
309 311 312 316 313 310 311 312 315 312 311 309 307 306 306 306 305 304 304 303 301 300 299 295 293 290 289 289 289 288 288 288 287 287 287 287 287 288 290 293 291 291 293 292 291 291 293 294 295
310 311 311 311 310 309 310 314 313 312 310 307 306 306 306 305 304 304 304 303 301 299 298 294 291 289 288 288 287 287 287 286 286 286 286 286 286 287 287 291 292 292 292 292 291 290 291 292 294
308 310 310 309 310 310 309 310 311 313 312 309 306 306 305 306 305 304 304 302 299 298 295 292 289 287 287 287 287 286 286 286 285 285 285 285 285 285 285 286 290 291 292 292 292 290 290 291 293
309 309 309 309 309 310 307 306 310 310 310 310 307 308 307 307 306 304 303 300 299 296 294 290 288 287 287 287 287 286 286 285 285 284 284 284 285 285 285 284 284 284 288 291 292 291 290 291 291
309 310 310 312 311 310 306 304 310 311 310 310 309 310 308 307 305 304 302 300 298 296 293 289 288 288 288 288 287 287 286 286 285 284 283 284 284 284 284 284 283 283 282 283 288 292 290 291 291